Wetterdaten: Montag, 25.03.2013
Datum Zeit Temp. Aussen +5cm Feuchte Auss Luftdruck Regen Sonnenschein Regendauer UV Solar Windben
25.03.2013 00:00 -0,6 C -1,6 C 54 % 1014,6 hPa 0,0 l/m 0 min 0 min 0,0 UV-I 0 W/m 12,9 km/h (3 Bft)
25.03.2013 00:02 -0,6 C -1,6 C 55 % 1014,5 hPa 0,0 l/m 0 min 0 min 0,0 UV-I 0 W/m 10,3 km/h (2 Bft)
25.03.2013 00:04 -0,6 C -1,6 C 55 % 1014,6 hPa 0,0 l/m 0 min 0 min 0,0 UV-I 0 W/m 7,7 km/h (2 Bft)
25.03.2013 00:06 -0,6 C -1,6 C 55 % 1014,6 hPa 0,0 l/m 0 min 0 min 0,0 UV-I 0 W/m 7,7 km/h (2 Bft)
25.03.2013 00:08 -0,6 C -1,6 C 55 % 1014,6 hPa 0,0 l/m 0 min 0 min 0,0 UV-I 0 W/m 18,0 km/h (3 Bft)
25.03.2013 00:10 -0,6 C -1,6 C 55 % 1014,6 hPa 0,0 l/m 0 min 0 min 0,0 UV-I 0 W/m 5,1 km/h (1 Bft)
25.03.2013 00:12 -0,6 C -1,6 C 55 % 1014,6 hPa 0,0 l/m 0 min 0 min 0,0 UV-I 0 W/m 23,2 km/h (4 Bft)
25.03.2013 00:14 -0,6 C -1,6 C 55 % 1014,6 hPa 0,0 l/m 0 min 0 min 0,0 UV-I 0 W/m 7,7 km/h (2 Bft)
25.03.2013 00:16 -0,7 C -1,6 C 56 % 1014,6 hPa 0,0 l/m 0 min 0 min 0,0 UV-I 0 W/m 7,7 km/h (2 Bft)
25.03.2013 00:18 -0,7 C -1,6 C 56 % 1014,6 hPa 0,0 l/m 0 min 0 min 0,0 UV-I 0 W/m 5,1 km/h (1 Bft)
25.03.2013 00:20 -0,7 C -2,1 C 56 % 1014,6 hPa 0,0 l/m 0 min 0 min 0,0 UV-I 0 W/m 7,7 km/h (2 Bft)
25.03.2013 00:22 -0,7 C -2,1 C 56 % 1014,7 hPa 0,0 l/m 0 min 0 min 0,0 UV-I 0 W/m 10,3 km/h (2 Bft)
25.03.2013 00:24 -0,7 C -2,1 C 56 % 1014,6 hPa 0,0 l/m 0 min 0 min 0,0 UV-I 0 W/m 10,3 km/h (2 Bft)
25.03.2013 00:26 -0,7 C -2,1 C 56 % 1014,6 hPa 0,0 l/m 0 min 0 min 0,0 UV-I 0 W/m 2,6 km/h (1 Bft)
25.03.2013 00:28 -0,7 C -2,1 C 56 % 1014,6 hPa 0,0 l/m 0 min 0 min 0,0 UV-I 0 W/m 12,9 km/h (3 Bft)
25.03.2013 00:30 -0,8 C -2,1 C 56 % 1014,6 hPa 0,0 l/m 0 min 0 min 0,0 UV-I 0 W/m 12,9 km/h (3 Bft)
25.03.2013 00:32 -0,8 C -2,1 C 56 % 1014,6 hPa 0,0 l/m 0 min 0 min 0,0 UV-I 0 W/m 10,3 km/h (2 Bft)
25.03.2013 00:34 -0,8 C -2,1 C 57 % 1014,6 hPa 0,0 l/m 0 min 0 min 0,0 UV-I 0 W/m 12,9 km/h (3 Bft)
25.03.2013 00:36 -0,8 C -2,1 C 57 % 1014,7 hPa 0,0 l/m 0 min 0 min 0,0 UV-I 0 W/m 12,9 km/h (3 Bft)
25.03.2013 00:38 -0,8 C -2,1 C 57 % 1014,7 hPa 0,0 l/m 0 min 0 min 0,0 UV-I 0 W/m 5,1 km/h (1 Bft)
25.03.2013 00:40 -0,8 C -2,1 C 57 % 1014,6 hPa 0,0 l/m 0 min 0 min 0,0 UV-I 0 W/m 0,0 km/h (0 Bft)
25.03.2013 00:42 -0,8 C -2,1 C 58 % 1014,6 hPa 0,0 l/m 0 min 0 min 0,0 UV-I 0 W/m 0,0 km/h (0 Bft)
25.03.2013 00:44 -0,9 C -2,1 C 58 % 1014,6 hPa 0,0 l/m 0 min 0 min 0,0 UV-I 0 W/m 15,4 km/h (3 Bft)
25.03.2013 00:46 -0,9 C -2,1 C 58 % 1014,5 hPa 0,0 l/m 0 min 0 min 0,0 UV-I 0 W/m 0,0 km/h (0 Bft)
25.03.2013 00:48 -0,9 C -2,1 C 58 % 1014,5 hPa 0,0 l/m 0 min 0 min 0,0 UV-I 0 W/m 10,3 km/h (2 Bft)
25.03.2013 00:50 -0,9 C -2,1 C 58 % 1014,5 hPa 0,0 l/m 0 min 0 min 0,0 UV-I 0 W/m 18,0 km/h (3 Bft)
25.03.2013 00:52 -1,0 C -2,1 C 59 % 1014,5 hPa 0,0 l/m 0 min 0 min 0,0 UV-I 0 W/m 5,1 km/h (1 Bft)
25.03.2013 00:54 -1,0 C -2,1 C 62 % 1014,5 hPa 0,0 l/m 0 min 0 min 0,0 UV-I 0 W/m 7,7 km/h (2 Bft)
25.03.2013 00:56 -1,0 C -2,1 C 59 % 1014,5 hPa 0,0 l/m 0 min 0 min 0,0 UV-I 0 W/m 5,1 km/h (1 Bft)
25.03.2013 00:58 -1,1 C -2,1 C 59 % 1014,5 hPa 0,0 l/m 0 min 0 min 0,0 UV-I 0 W/m 5,1 km/h (1 Bft)
25.03.2013 01:00 -1,1 C -2,1 C 59 % 1014,5 hPa 0,0 l/m 0 min 0 min 0,0 UV-I 0 W/m 2,6 km/h (1 Bft)
25.03.2013 01:02 -1,1 C -2,1 C 59 % 1014,5 hPa 0,0 l/m 0 min 0 min 0,0 UV-I 0 W/m 10,3 km/h (2 Bft)
25.03.2013 01:04 -1,1 C -2,1 C 59 % 1014,4 hPa 0,0 l/m 0 min 0 min 0,0 UV-I 0 W/m 5,1 km/h (1 Bft)
25.03.2013 01:06 -1,1 C -2,1 C 59 % 1014,5 hPa 0,0 l/m 0 min 0 min 0,0 UV-I 0 W/m 10,3 km/h (2 Bft)
25.03.2013 01:08 -1,2 C -2,1 C 59 % 1014,5 hPa 0,0 l/m 0 min 0 min 0,0 UV-I 0 W/m 12,9 km/h (3 Bft)
25.03.2013 01:10 -1,2 C -2,1 C 59 % 1014,4 hPa 0,0 l/m 0 min 0 min 0,0 UV-I 0 W/m 0,0 km/h (0 Bft)
25.03.2013 01:12 -1,2 C -2,1 C 59 % 1014,4 hPa 0,0 l/m 0 min 0 min 0,0 UV-I 0 W/m 7,7 km/h (2 Bft)
25.03.2013 01:14 -1,2 C -2,1 C 59 % 1014,4 hPa 0,0 l/m 0 min 0 min 0,0 UV-I 0 W/m 12,9 km/h (3 Bft)
25.03.2013 01:16 -1,2 C -2,1 C 59 % 1014,4 hPa 0,0 l/m 0 min 0 min 0,0 UV-I 0 W/m 10,3 km/h (2 Bft)
25.03.2013 01:18 -1,2 C -2,1 C 59 % 1014,5 hPa 0,0 l/m 0 min 0 min 0,0 UV-I 0 W/m 10,3 km/h (2 Bft)
25.03.2013 01:20 -1,2 C -2,7 C 60 % 1014,4 hPa 0,0 l/m 0 min 0 min 0,0 UV-I 0 W/m 10,3 km/h (2 Bft)
25.03.2013 01:22 -1,2 C -2,7 C 60 % 1014,4 hPa 0,0 l/m 0 min 0 min 0,0 UV-I 0 W/m 18,0 km/h (3 Bft)
25.03.2013 01:24 -1,3 C -2,7 C 59 % 1014,5 hPa 0,0 l/m 0 min 0 min 0,0 UV-I 0 W/m 7,7 km/h (2 Bft)
25.03.2013 01:26 -1,3 C -2,7 C 60 % 1014,5 hPa 0,0 l/m 0 min 0 min 0,0 UV-I 0 W/m 7,7 km/h (2 Bft)
25.03.2013 01:28 -1,3 C -2,7 C 60 % 1014,5 hPa 0,0 l/m 0 min 0 min 0,0 UV-I 0 W/m 10,3 km/h (2 Bft)
25.03.2013 01:30 -1,3 C -2,7 C 60 % 1014,5 hPa 0,0 l/m 0 min 0 min 0,0 UV-I 0 W/m 10,3 km/h (2 Bft)
25.03.2013 01:32 -1,3 C -2,7 C 60 % 1014,5 hPa 0,0 l/m 0 min 0 min 0,0 UV-I 0 W/m 5,1 km/h (1 Bft)
25.03.2013 01:34 -1,3 C -2,7 C 60 % 1014,5 hPa 0,0 l/m 0 min 0 min 0,0 UV-I 0 W/m 5,1 km/h (1 Bft)
25.03.2013 01:36 -1,3 C -2,7 C 60 % 1014,4 hPa 0,0 l/m 0 min 0 min 0,0 UV-I 0 W/m 18,0 km/h (3 Bft)
25.03.2013 01:38 -1,3 C -2,7 C 60 % 1014,5 hPa 0,0 l/m 0 min 0 min 0,0 UV-I 0 W/m 25,7 km/h (4 Bft)
25.03.2013 01:40 -1,3 C -2,7 C 60 % 1014,4 hPa 0,0 l/m 0 min 0 min 0,0 UV-I 0 W/m 7,7 km/h (2 Bft)
25.03.2013 01:42 -1,4 C -2,7 C 60 % 1014,3 hPa 0,0 l/m 0 min 0 min 0,0 UV-I 0 W/m 18,0 km/h (3 Bft)
25.03.2013 01:44 -1,4 C -2,7 C 60 % 1014,3 hPa 0,0 l/m 0 min 0 min 0,0 UV-I 0 W/m 7,7 km/h (2 Bft)
25.03.2013 01:46 -1,4 C -2,7 C 60 % 1014,3 hPa 0,0 l/m 0 min 0 min 0,0 UV-I 0 W/m 18,0 km/h (3 Bft)
25.03.2013 01:48 -1,4 C -2,7 C 60 % 1014,3 hPa 0,0 l/m 0 min 0 min 0,0 UV-I 0 W/m 10,3 km/h (2 Bft)
25.03.2013 01:50 -1,4 C -2,7 C 60 % 1014,4 hPa 0,0 l/m 0 min 0 min 0,0 UV-I 0 W/m 30,9 km/h (5 Bft)
25.03.2013 01:52 -1,4 C -2,7 C 60 % 1014,3 hPa 0,0 l/m 0 min 0 min 0,0 UV-I 0 W/m 7,7 km/h (2 Bft)
25.03.2013 01:54 -1,4 C -2,7 C 60 % 1014,3 hPa 0,0 l/m 0 min 0 min 0,0 UV-I 0 W/m 12,9 km/h (3 Bft)
25.03.2013 01:56 -1,5 C -2,7 C 61 % 1014,3 hPa 0,0 l/m 0 min 0 min 0,0 UV-I 0 W/m 12,9 km/h (3 Bft)
25.03.2013 01:58 -1,5 C -2,7 C 61 % 1014,2 hPa 0,0 l/m 0 min 0 min 0,0 UV-I 0 W/m 18,0 km/h (3 Bft)
25.03.2013 02:00 -1,5 C -2,7 C 61 % 1014,2 hPa 0,0 l/m 0 min 0 min 0,0 UV-I 0 W/m 23,2 km/h (4 Bft)
25.03.2013 02:02 -1,5 C -2,7 C 61 % 1014,1 hPa 0,0 l/m 0 min 0 min 0,0 UV-I 0 W/m 10,3 km/h (2 Bft)
25.03.2013 02:04 -1,5 C -2,7 C 61 % 1014,1 hPa 0,0 l/m 0 min 0 min 0,0 UV-I 0 W/m 10,3 km/h (2 Bft)
25.03.2013 02:06 -1,6 C -2,7 C 61 % 1014,1 hPa 0,0 l/m 0 min 0 min 0,0 UV-I 0 W/m 10,3 km/h (2 Bft)
25.03.2013 02:08 -1,6 C -2,7 C 61 % 1014,1 hPa 0,0 l/m 0 min 0 min 0,0 UV-I 0 W/m 5,1 km/h (1 Bft)
25.03.2013 02:10 -1,6 C -2,7 C 61 % 1014,1 hPa 0,0 l/m 0 min 0 min 0,0 UV-I 0 W/m 20,6 km/h (4 Bft)
25.03.2013 02:12 -1,6 C -2,7 C 61 % 1014,1 hPa 0,0 l/m 0 min 0 min 0,0 UV-I 0 W/m 18,0 km/h (3 Bft)
25.03.2013 02:14 -1,6 C -2,7 C 61 % 1014,2 hPa 0,0 l/m 0 min 0 min 0,0 UV-I 0 W/m 23,2 km/h (4 Bft)
25.03.2013 02:16 -1,6 C -2,7 C 61 % 1014,1 hPa 0,0 l/m 0 min 0 min 0,0 UV-I 0 W/m 12,9 km/h (3 Bft)
25.03.2013 02:18 -1,6 C -2,7 C 61 % 1014,1 hPa 0,0 l/m 0 min 0 min 0,0 UV-I 0 W/m 12,9 km/h (3 Bft)
25.03.2013 02:20 -1,6 C -2,7 C 62 % 1014,1 hPa 0,0 l/m 0 min 0 min 0,0 UV-I 0 W/m 7,7 km/h (2 Bft)
25.03.2013 02:22 -1,7 C -2,7 C 62 % 1014,2 hPa 0,0 l/m 0 min 0 min 0,0 UV-I 0 W/m 7,7 km/h (2 Bft)
25.03.2013 02:24 -1,7 C -2,7 C 62 % 1014,2 hPa 0,0 l/m 0 min 0 min 0,0 UV-I 0 W/m 10,3 km/h (2 Bft)
25.03.2013 02:26 -1,7 C -2,7 C 62 % 1014,2 hPa 0,0 l/m 0 min 0 min 0,0 UV-I 0 W/m 18,0 km/h (3 Bft)
25.03.2013 02:28 -1,7 C -2,7 C 62 % 1014,2 hPa 0,0 l/m 0 min 0 min 0,0 UV-I 0 W/m 10,3 km/h (2 Bft)
25.03.2013 02:30 -1,7 C -2,7 C 62 % 1014,2 hPa 0,0 l/m 0 min 0 min 0,0 UV-I 0 W/m 12,9 km/h (3 Bft)
25.03.2013 02:32 -1,7 C -2,7 C 62 % 1014,2 hPa 0,0 l/m 0 min 0 min 0,0 UV-I 0 W/m 7,7 km/h (2 Bft)
25.03.2013 02:34 -1,7 C -2,7 C 62 % 1014,2 hPa 0,0 l/m 0 min 0 min 0,0 UV-I 0 W/m 7,7 km/h (2 Bft)
25.03.2013 02:36 -1,7 C -2,7 C 62 % 1014,2 hPa 0,0 l/m 0 min 0 min 0,0 UV-I 0 W/m 5,1 km/h (1 Bft)
25.03.2013 02:38 -1,7 C -2,7 C 63 % 1014,1 hPa 0,0 l/m 0 min 0 min 0,0 UV-I 0 W/m 10,3 km/h (2 Bft)
25.03.2013 02:40 -1,7 C -2,7 C 63 % 1014,1 hPa 0,0 l/m 0 min 0 min 0,0 UV-I 0 W/m 18,0 km/h (3 Bft)
25.03.2013 02:42 -1,7 C -2,7 C 63 % 1014,1 hPa 0,0 l/m 0 min 0 min 0,0 UV-I 0 W/m 7,7 km/h (2 Bft)
25.03.2013 02:44 -1,7 C -2,7 C 63 % 1014,2 hPa 0,0 l/m 0 min 0 min 0,0 UV-I 0 W/m 10,3 km/h (2 Bft)
25.03.2013 02:46 -1,7 C -2,7 C 63 % 1014,1 hPa 0,0 l/m 0 min 0 min 0,0 UV-I 0 W/m 20,6 km/h (4 Bft)
25.03.2013 02:48 -1,7 C -2,7 C 63 % 1014,1 hPa 0,0 l/m 0 min 0 min 0,0 UV-I 0 W/m 12,9 km/h (3 Bft)
25.03.2013 02:50 -1,7 C -2,7 C 63 % 1014,0 hPa 0,0 l/m 0 min 0 min 0,0 UV-I 0 W/m 10,3 km/h (2 Bft)
25.03.2013 02:52 -1,7 C -2,7 C 63 % 1014,1 hPa 0,0 l/m 0 min 0 min 0,0 UV-I 0 W/m 10,3 km/h (2 Bft)
25.03.2013 02:54 -1,7 C -2,7 C 63 % 1014,1 hPa 0,0 l/m 0 min 0 min 0,0 UV-I 0 W/m 7,7 km/h (2 Bft)
25.03.2013 02:56 -1,7 C -2,7 C 63 % 1014,1 hPa 0,0 l/m 0 min 0 min 0,0 UV-I 0 W/m 0,0 km/h (0 Bft)
25.03.2013 02:58 -1,7 C -2,7 C 63 % 1014,1 hPa 0,0 l/m 0 min 0 min 0,0 UV-I 0 W/m 10,3 km/h (2 Bft)
25.03.2013 03:00 -1,7 C -2,7 C 63 % 1014,1 hPa 0,0 l/m 0 min 0 min 0,0 UV-I 0 W/m 5,1 km/h (1 Bft)
25.03.2013 03:02 -1,7 C -2,7 C 64 % 1014,1 hPa 0,0 l/m 0 min 0 min 0,0 UV-I 0 W/m 7,7 km/h (2 Bft)
25.03.2013 03:04 -1,8 C -2,7 C 63 % 1014,1 hPa 0,0 l/m 0 min 0 min 0,0 UV-I 0 W/m 15,4 km/h (3 Bft)
25.03.2013 03:06 -1,8 C -2,7 C 64 % 1014,1 hPa 0,0 l/m 0 min 0 min 0,0 UV-I 0 W/m 2,6 km/h (1 Bft)
25.03.2013 03:08 -1,8 C -2,7 C 64 % 1014,0 hPa 0,0 l/m 0 min 0 min 0,0 UV-I 0 W/m 7,7 km/h (2 Bft)
25.03.2013 03:10 -1,8 C -2,7 C 64 % 1014,0 hPa 0,0 l/m 0 min 0 min 0,0 UV-I 0 W/m 5,1 km/h (1 Bft)
25.03.2013 03:12 -1,8 C -2,7 C 64 % 1014,0 hPa 0,0 l/m 0 min 0 min 0,0 UV-I 0 W/m 2,6 km/h (1 Bft)
25.03.2013 03:14 -1,8 C -2,7 C 64 % 1014,0 hPa 0,0 l/m 0 min 0 min 0,0 UV-I 0 W/m 0,0 km/h (0 Bft)
25.03.2013 03:16 -1,8 C -2,7 C 64 % 1014,0 hPa 0,0 l/m 0 min 0 min 0,0 UV-I 0 W/m 10,3 km/h (2 Bft)
25.03.2013 03:18 -1,8 C -2,7 C 64 % 1014,0 hPa 0,0 l/m 0 min 0 min 0,0 UV-I 0 W/m 10,3 km/h (2 Bft)
25.03.2013 03:20 -1,8 C -2,7 C 64 % 1013,9 hPa 0,0 l/m 0 min 0 min 0,0 UV-I 0 W/m 7,7 km/h (2 Bft)
25.03.2013 03:22 -1,8 C -2,7 C 64 % 1014,0 hPa 0,0 l/m 0 min 0 min 0,0 UV-I 0 W/m 12,9 km/h (3 Bft)
25.03.2013 03:24 -1,8 C -2,7 C 64 % 1013,9 hPa 0,0 l/m 0 min 0 min 0,0 UV-I 0 W/m 12,9 km/h (3 Bft)
25.03.2013 03:26 -1,8 C -2,7 C 64 % 1014,0 hPa 0,0 l/m 0 min 0 min 0,0 UV-I 0 W/m 12,9 km/h (3 Bft)
25.03.2013 03:28 -1,8 C -2,7 C 64 % 1014,0 hPa 0,0 l/m 0 min 0 min 0,0 UV-I 0 W/m 7,7 km/h (2 Bft)
25.03.2013 03:30 -1,8 C -2,7 C 64 % 1014,0 hPa 0,0 l/m 0 min 0 min 0,0 UV-I 0 W/m 2,6 km/h (1 Bft)
25.03.2013 03:32 -1,8 C -2,7 C 64 % 1014,0 hPa 0,0 l/m 0 min 0 min 0,0 UV-I 0 W/m 10,3 km/h (2 Bft)
25.03.2013 03:34 -1,8 C -2,7 C 64 % 1014,0 hPa 0,0 l/m 0 min 0 min 0,0 UV-I 0 W/m 10,3 km/h (2 Bft)
25.03.2013 03:36 -1,8 C -2,7 C 64 % 1014,0 hPa 0,0 l/m 0 min 0 min 0,0 UV-I 0 W/m 12,9 km/h (3 Bft)
25.03.2013 03:38 -1,8 C -2,7 C 64 % 1014,0 hPa 0,0 l/m 0 min 0 min 0,0 UV-I 0 W/m 2,6 km/h (1 Bft)
25.03.2013 03:40 -1,8 C -2,7 C 64 % 1014,0 hPa 0,0 l/m 0 min 0 min 0,0 UV-I 0 W/m 10,3 km/h (2 Bft)
25.03.2013 03:42 -1,8 C -2,7 C 65 % 1013,9 hPa 0,0 l/m 0 min 0 min 0,0 UV-I 0 W/m 12,9 km/h (3 Bft)
25.03.2013 03:44 -1,8 C -2,7 C 65 % 1014,0 hPa 0,0 l/m 0 min 0 min 0,0 UV-I 0 W/m 7,7 km/h (2 Bft)
25.03.2013 03:46 -1,8 C -2,7 C 65 % 1014,0 hPa 0,0 l/m 0 min 0 min 0,0 UV-I 0 W/m 10,3 km/h (2 Bft)
25.03.2013 03:48 -1,9 C -2,7 C 65 % 1014,0 hPa 0,0 l/m 0 min 0 min 0,0 UV-I 0 W/m 5,1 km/h (1 Bft)
25.03.2013 03:50 -1,9 C -2,7 C 65 % 1014,0 hPa 0,0 l/m 0 min 0 min 0,0 UV-I 0 W/m 7,7 km/h (2 Bft)
25.03.2013 03:52 -1,9 C -3,2 C 65 % 1014,0 hPa 0,0 l/m 0 min 0 min 0,0 UV-I 0 W/m 5,1 km/h (1 Bft)
25.03.2013 03:54 -1,9 C -3,2 C 65 % 1014,0 hPa 0,0 l/m 0 min 0 min 0,0 UV-I 0 W/m 5,1 km/h (1 Bft)
25.03.2013 03:56 -1,9 C -3,2 C 65 % 1014,0 hPa 0,0 l/m 0 min 0 min 0,0 UV-I 0 W/m 2,6 km/h (1 Bft)
25.03.2013 03:58 -1,9 C -3,2 C 65 % 1014,0 hPa 0,0 l/m 0 min 0 min 0,0 UV-I 0 W/m 2,6 km/h (1 Bft)
25.03.2013 04:00 -1,9 C -3,2 C 65 % 1014,0 hPa 0,0 l/m 0 min 0 min 0,0 UV-I 0 W/m 12,9 km/h (3 Bft)
25.03.2013 04:02 -1,9 C -3,2 C 65 % 1013,9 hPa 0,0 l/m 0 min 0 min 0,0 UV-I 0 W/m 7,7 km/h (2 Bft)
25.03.2013 04:04 -1,9 C -3,2 C 65 % 1013,9 hPa 0,0 l/m 0 min 0 min 0,0 UV-I 0 W/m 7,7 km/h (2 Bft)
25.03.2013 04:06 -1,9 C -3,2 C 65 % 1014,0 hPa 0,0 l/m 0 min 0 min 0,0 UV-I 0 W/m 15,4 km/h (3 Bft)
25.03.2013 04:08 -2,0 C -3,2 C 65 % 1013,9 hPa 0,0 l/m 0 min 0 min 0,0 UV-I 0 W/m 7,7 km/h (2 Bft)
25.03.2013 04:10 -2,0 C -3,2 C 65 % 1013,9 hPa 0,0 l/m 0 min 0 min 0,0 UV-I 0 W/m 7,7 km/h (2 Bft)
25.03.2013 04:12 -2,0 C -3,2 C 65 % 1013,9 hPa 0,0 l/m 0 min 0 min 0,0 UV-I 0 W/m 20,6 km/h (4 Bft)
25.03.2013 04:14 -2,0 C -3,2 C 65 % 1013,9 hPa 0,0 l/m 0 min 0 min 0,0 UV-I 0 W/m 12,9 km/h (3 Bft)
25.03.2013 04:16 -2,0 C -3,2 C 65 % 1013,9 hPa 0,0 l/m 0 min 0 min 0,0 UV-I 0 W/m 7,7 km/h (2 Bft)
25.03.2013 04:18 -2,1 C -3,2 C 64 % 1013,9 hPa 0,0 l/m 0 min 0 min 0,0 UV-I 0 W/m 18,0 km/h (3 Bft)
25.03.2013 04:20 -2,1 C -3,2 C 65 % 1013,9 hPa 0,0 l/m 0 min 0 min 0,0 UV-I 0 W/m 7,7 km/h (2 Bft)
25.03.2013 04:22 -2,1 C -3,2 C 65 % 1013,8 hPa 0,0 l/m 0 min 0 min 0,0 UV-I 0 W/m 7,7 km/h (2 Bft)
25.03.2013 04:24 -2,1 C -3,2 C 65 % 1013,9 hPa 0,0 l/m 0 min 0 min 0,0 UV-I 0 W/m 12,9 km/h (3 Bft)
25.03.2013 04:26 -2,1 C -3,2 C 65 % 1013,9 hPa 0,0 l/m 0 min 0 min 0,0 UV-I 0 W/m 12,9 km/h (3 Bft)
25.03.2013 04:28 -2,1 C -3,2 C 65 % 1013,9 hPa 0,0 l/m 0 min 0 min 0,0 UV-I 0 W/m 12,9 km/h (3 Bft)
25.03.2013 04:30 -2,1 C -3,2 C 65 % 1013,9 hPa 0,0 l/m 0 min 0 min 0,0 UV-I 0 W/m 18,0 km/h (3 Bft)
25.03.2013 04:32 -2,1 C -3,2 C 65 % 1013,9 hPa 0,0 l/m 0 min 0 min 0,0 UV-I 0 W/m 7,7 km/h (2 Bft)
25.03.2013 04:34 -2,1 C -3,2 C 65 % 1013,9 hPa 0,0 l/m 0 min 0 min 0,0 UV-I 0 W/m 10,3 km/h (2 Bft)
25.03.2013 04:36 -2,1 C -3,2 C 66 % 1013,9 hPa 0,0 l/m 0 min 0 min 0,0 UV-I 0 W/m 10,3 km/h (2 Bft)
25.03.2013 04:38 -2,1 C -3,2 C 65 % 1014,0 hPa 0,0 l/m 0 min 0 min 0,0 UV-I 0 W/m 18,0 km/h (3 Bft)
25.03.2013 04:40 -2,1 C -3,2 C 65 % 1014,0 hPa 0,0 l/m 0 min 0 min 0,0 UV-I 0 W/m 12,9 km/h (3 Bft)
25.03.2013 04:42 -2,2 C -3,2 C 65 % 1014,0 hPa 0,0 l/m 0 min 0 min 0,0 UV-I 0 W/m 7,7 km/h (2 Bft)
25.03.2013 04:44 -2,2 C -3,2 C 65 % 1014,0 hPa 0,0 l/m 0 min 0 min 0,0 UV-I 0 W/m 0,0 km/h (0 Bft)
25.03.2013 04:46 -2,2 C -3,2 C 65 % 1013,9 hPa 0,0 l/m 0 min 0 min 0,0 UV-I 0 W/m 12,9 km/h (3 Bft)
25.03.2013 04:48 -2,2 C -3,2 C 65 % 1014,0 hPa 0,0 l/m 0 min 0 min 0,0 UV-I 0 W/m 18,0 km/h (3 Bft)
25.03.2013 04:50 -2,2 C -3,2 C 65 % 1014,0 hPa 0,0 l/m 0 min 0 min 0,0 UV-I 0 W/m 15,4 km/h (3 Bft)
25.03.2013 04:52 -2,2 C -3,2 C 65 % 1014,0 hPa 0,0 l/m 0 min 0 min 0,0 UV-I 0 W/m 15,4 km/h (3 Bft)
25.03.2013 04:54 -2,2 C -3,2 C 65 % 1014,0 hPa 0,0 l/m 0 min 0 min 0,0 UV-I 0 W/m 18,0 km/h (3 Bft)
25.03.2013 04:56 -2,2 C -3,2 C 65 % 1014,0 hPa 0,0 l/m 0 min 0 min 0,0 UV-I 0 W/m 23,2 km/h (4 Bft)
25.03.2013 04:58 -2,2 C -3,2 C 65 % 1014,1 hPa 0,0 l/m 0 min 0 min 0,0 UV-I 0 W/m 18,0 km/h (3 Bft)
25.03.2013 05:00 -2,2 C -3,2 C 65 % 1014,1 hPa 0,0 l/m 0 min 0 min 0,0 UV-I 0 W/m 5,1 km/h (1 Bft)
25.03.2013 05:02 -2,2 C -3,2 C 65 % 1014,1 hPa 0,0 l/m 0 min 0 min 0,0 UV-I 0 W/m 7,7 km/h (2 Bft)
25.03.2013 05:04 -2,3 C -3,2 C 65 % 1014,1 hPa 0,0 l/m 0 min 0 min 0,0 UV-I 0 W/m 20,6 km/h (4 Bft)
25.03.2013 05:06 -2,3 C -3,2 C 65 % 1014,1 hPa 0,0 l/m 0 min 0 min 0,0 UV-I 0 W/m 10,3 km/h (2 Bft)
25.03.2013 05:08 -2,3 C -3,2 C 66 % 1014,1 hPa 0,0 l/m 0 min 0 min 0,0 UV-I 0 W/m 12,9 km/h (3 Bft)
25.03.2013 05:10 -2,3 C -3,2 C 66 % 1014,2 hPa 0,0 l/m 0 min 0 min 0,0 UV-I 0 W/m 10,3 km/h (2 Bft)
25.03.2013 05:12 -2,3 C -3,2 C 66 % 1014,1 hPa 0,0 l/m 0 min 0 min 0,0 UV-I 0 W/m 18,0 km/h (3 Bft)
25.03.2013 05:14 -2,3 C -3,2 C 66 % 1014,1 hPa 0,0 l/m 0 min 0 min 0,0 UV-I 0 W/m 10,3 km/h (2 Bft)
25.03.2013 05:16 -2,3 C -3,2 C 66 % 1014,2 hPa 0,0 l/m 0 min 0 min 0,0 UV-I 0 W/m 10,3 km/h (2 Bft)
25.03.2013 05:18 -2,3 C -3,2 C 66 % 1014,2 hPa 0,0 l/m 0 min 0 min 0,0 UV-I 0 W/m 15,4 km/h (3 Bft)
25.03.2013 05:20 -2,3 C -3,2 C 65 % 1014,2 hPa 0,0 l/m 0 min 0 min 0,0 UV-I 0 W/m 25,7 km/h (4 Bft)
25.03.2013 05:22 -2,3 C -3,2 C 65 % 1014,3 hPa 0,0 l/m 0 min 0 min 0,0 UV-I 0 W/m 23,2 km/h (4 Bft)
25.03.2013 05:24 -2,3 C -3,2 C 66 % 1014,2 hPa 0,0 l/m 0 min 0 min 0,0 UV-I 0 W/m 7,7 km/h (2 Bft)
25.03.2013 05:26 -2,3 C -3,2 C 66 % 1014,3 hPa 0,0 l/m 0 min 0 min 0,0 UV-I 0 W/m 2,6 km/h (1 Bft)
25.03.2013 05:28 -2,3 C -3,2 C 66 % 1014,2 hPa 0,0 l/m 0 min 0 min 0,0 UV-I 0 W/m 7,7 km/h (2 Bft)
25.03.2013 05:30 -2,3 C -3,2 C 66 % 1014,3 hPa 0,0 l/m 0 min 0 min 0,0 UV-I 0 W/m 5,1 km/h (1 Bft)
25.03.2013 05:32 -2,4 C -3,2 C 66 % 1014,3 hPa 0,0 l/m 0 min 0 min 0,0 UV-I 0 W/m 10,3 km/h (2 Bft)
25.03.2013 05:34 -2,4 C -3,2 C 66 % 1014,3 hPa 0,0 l/m 0 min 0 min 0,0 UV-I 0 W/m 7,7 km/h (2 Bft)
25.03.2013 05:36 -2,4 C -3,2 C 66 % 1014,3 hPa 0,0 l/m 0 min 0 min 0,0 UV-I 0 W/m 20,6 km/h (4 Bft)
25.03.2013 05:38 -2,4 C -3,2 C 66 % 1014,4 hPa 0,0 l/m 0 min 0 min 0,0 UV-I 0 W/m 12,9 km/h (3 Bft)
25.03.2013 05:40 -2,4 C -3,2 C 66 % 1014,2 hPa 0,0 l/m 0 min 0 min 0,0 UV-I 0 W/m 23,2 km/h (4 Bft)
25.03.2013 05:42 -2,4 C -3,2 C 66 % 1014,3 hPa 0,0 l/m 0 min 0 min 0,0 UV-I 0 W/m 33,5 km/h (5 Bft)
25.03.2013 05:44 -2,5 C -3,2 C 66 % 1014,3 hPa 0,0 l/m 0 min 0 min 0,0 UV-I 0 W/m 18,0 km/h (3 Bft)
25.03.2013 05:46 -2,5 C -3,2 C 66 % 1014,3 hPa 0,0 l/m 0 min 0 min 0,0 UV-I 0 W/m 12,9 km/h (3 Bft)
25.03.2013 05:48 -2,5 C -3,8 C 67 % 1014,3 hPa 0,0 l/m 0 min 0 min 0,0 UV-I 0 W/m 12,9 km/h (3 Bft)
25.03.2013 05:50 -2,6 C -3,8 C 67 % 1014,3 hPa 0,0 l/m 0 min 0 min 0,0 UV-I 0 W/m 23,2 km/h (4 Bft)
25.03.2013 05:52 -2,6 C -3,8 C 67 % 1014,4 hPa 0,0 l/m 0 min 0 min 0,0 UV-I 0 W/m 12,9 km/h (3 Bft)
25.03.2013 05:54 -2,6 C -3,8 C 67 % 1014,4 hPa 0,0 l/m 0 min 0 min 0,0 UV-I 0 W/m 7,7 km/h (2 Bft)
25.03.2013 05:56 -2,6 C -3,8 C 67 % 1014,3 hPa 0,0 l/m 0 min 0 min 0,0 UV-I 0 W/m 10,3 km/h (2 Bft)
25.03.2013 05:58 -2,6 C -3,8 C 67 % 1014,4 hPa 0,0 l/m 0 min 0 min 0,0 UV-I 0 W/m 10,3 km/h (2 Bft)
25.03.2013 06:00 -2,7 C -3,8 C 67 % 1014,3 hPa 0,0 l/m 0 min 0 min 0,0 UV-I 0 W/m 25,7 km/h (4 Bft)
25.03.2013 06:02 -2,7 C -3,8 C 66 % 1014,4 hPa 0,0 l/m 0 min 0 min 0,0 UV-I 0 W/m 23,2 km/h (4 Bft)
25.03.2013 06:04 -2,7 C -3,8 C 66 % 1014,4 hPa 0,0 l/m 0 min 0 min 0,0 UV-I 0 W/m 23,2 km/h (4 Bft)
25.03.2013 06:06 -2,7 C -3,8 C 67 % 1014,4 hPa 0,0 l/m 0 min 0 min 0,0 UV-I 0 W/m 10,3 km/h (2 Bft)
25.03.2013 06:08 -2,7 C -3,8 C 67 % 1014,4 hPa 0,0 l/m 0 min 0 min 0,0 UV-I 0 W/m 12,9 km/h (3 Bft)
25.03.2013 06:10 -2,7 C -3,8 C 67 % 1014,4 hPa 0,0 l/m 0 min 0 min 0,0 UV-I 0 W/m 10,3 km/h (2 Bft)
25.03.2013 06:12 -2,8 C -3,8 C 67 % 1014,4 hPa 0,0 l/m 0 min 0 min 0,0 UV-I 0 W/m 20,6 km/h (4 Bft)
25.03.2013 06:14 -2,8 C -3,8 C 67 % 1014,4 hPa 0,0 l/m 0 min 0 min 0,0 UV-I 0 W/m 25,7 km/h (4 Bft)
25.03.2013 06:16 -2,8 C -3,8 C 67 % 1014,5 hPa 0,0 l/m 0 min 0 min 0,0 UV-I 0 W/m 20,6 km/h (4 Bft)
25.03.2013 06:18 -2,8 C -3,8 C 67 % 1014,5 hPa 0,0 l/m 0 min 0 min 0,0 UV-I 0 W/m 15,4 km/h (3 Bft)
25.03.2013 06:20 -2,8 C -3,8 C 67 % 1014,5 hPa 0,0 l/m 0 min 0 min 0,0 UV-I 0 W/m 20,6 km/h (4 Bft)
25.03.2013 06:22 -2,8 C -3,8 C 67 % 1014,6 hPa 0,0 l/m 0 min 0 min 0,0 UV-I 0 W/m 18,0 km/h (3 Bft)
25.03.2013 06:24 -2,8 C -3,8 C 67 % 1014,6 hPa 0,0 l/m 0 min 0 min 0,0 UV-I 0 W/m 23,2 km/h (4 Bft)
25.03.2013 06:26 -2,8 C -3,8 C 67 % 1014,6 hPa 0,0 l/m 0 min 0 min 0,0 UV-I 0 W/m 15,4 km/h (3 Bft)
25.03.2013 06:28 -2,9 C -3,8 C 67 % 1014,6 hPa 0,0 l/m 0 min 0 min 0,0 UV-I 0 W/m 10,3 km/h (2 Bft)
25.03.2013 06:30 -2,9 C -3,8 C 68 % 1014,6 hPa 0,0 l/m 0 min 0 min 0,0 UV-I 0 W/m 7,7 km/h (2 Bft)
25.03.2013 06:32 -2,9 C -3,8 C 68 % 1014,6 hPa 0,0 l/m 0 min 0 min 0,0 UV-I 0 W/m 5,1 km/h (1 Bft)
25.03.2013 06:34 -2,9 C -3,8 C 68 % 1014,7 hPa 0,0 l/m 0 min 0 min 0,0 UV-I 0 W/m 2,6 km/h (1 Bft)
25.03.2013 06:36 -2,9 C -3,8 C 68 % 1014,7 hPa 0,0 l/m 0 min 0 min 0,0 UV-I 0 W/m 10,3 km/h (2 Bft)
25.03.2013 06:38 -2,9 C -3,8 C 68 % 1014,7 hPa 0,0 l/m 0 min 0 min 0,0 UV-I 0 W/m 15,4 km/h (3 Bft)
25.03.2013 06:40 -2,9 C -3,8 C 68 % 1014,7 hPa 0,0 l/m 0 min 0 min 0,0 UV-I 5 W/m 20,6 km/h (4 Bft)
25.03.2013 06:42 -2,9 C -3,8 C 68 % 1014,7 hPa 0,0 l/m 0 min 0 min 0,0 UV-I 5 W/m 25,7 km/h (4 Bft)
25.03.2013 06:44 -2,9 C -3,8 C 68 % 1014,8 hPa 0,0 l/m 0 min 0 min 0,0 UV-I 5 W/m 7,7 km/h (2 Bft)
25.03.2013 06:46 -2,9 C -3,8 C 68 % 1014,8 hPa 0,0 l/m 0 min 0 min 0,0 UV-I 7 W/m 15,4 km/h (3 Bft)
25.03.2013 06:48 -2,9 C -3,8 C 68 % 1014,8 hPa 0,0 l/m 0 min 0 min 0,0 UV-I 9 W/m 0,0 km/h (0 Bft)
25.03.2013 06:50 -2,9 C -3,8 C 68 % 1014,8 hPa 0,0 l/m 0 min 0 min 0,0 UV-I 12 W/m 12,9 km/h (3 Bft)
25.03.2013 06:52 -2,9 C -3,8 C 68 % 1014,8 hPa 0,0 l/m 0 min 0 min 0,0 UV-I 14 W/m 15,4 km/h (3 Bft)
25.03.2013 06:54 -2,9 C -3,8 C 68 % 1014,7 hPa 0,0 l/m 0 min 0 min 0,0 UV-I 16 W/m 18,0 km/h (3 Bft)
25.03.2013 06:56 -2,9 C -3,8 C 68 % 1014,7 hPa 0,0 l/m 0 min 0 min 0,0 UV-I 18 W/m 18,0 km/h (3 Bft)
25.03.2013 06:58 -2,9 C -3,8 C 68 % 1014,7 hPa 0,0 l/m 0 min 0 min 0,0 UV-I 21 W/m 23,2 km/h (4 Bft)
25.03.2013 07:00 -2,9 C -3,8 C 68 % 1014,8 hPa 0,0 l/m 0 min 0 min 0,0 UV-I 23 W/m 12,9 km/h (3 Bft)
25.03.2013 07:02 -2,9 C -3,8 C 68 % 1014,7 hPa 0,0 l/m 0 min 0 min 0,0 UV-I 23 W/m 28,3 km/h (4 Bft)
25.03.2013 07:04 -3,0 C -3,8 C 68 % 1014,8 hPa 0,0 l/m 0 min 0 min 0,0 UV-I 26 W/m 18,0 km/h (3 Bft)
25.03.2013 07:06 -2,9 C -3,8 C 68 % 1014,8 hPa 0,0 l/m 0 min 0 min 0,0 UV-I 28 W/m 12,9 km/h (3 Bft)
25.03.2013 07:08 -3,0 C -3,8 C 68 % 1014,8 hPa 0,0 l/m 0 min 0 min 0,0 UV-I 32 W/m 12,9 km/h (3 Bft)
25.03.2013 07:10 -3,0 C -3,2 C 68 % 1014,8 hPa 0,0 l/m 0 min 0 min 0,0 UV-I 33 W/m 7,7 km/h (2 Bft)
25.03.2013 07:12 -2,9 C -3,2 C 68 % 1014,7 hPa 0,0 l/m 0 min 0 min 0,0 UV-I 37 W/m 10,3 km/h (2 Bft)
25.03.2013 07:14 -3,0 C -3,8 C 68 % 1014,7 hPa 0,0 l/m 0 min 0 min 0,0 UV-I 40 W/m 23,2 km/h (4 Bft)
25.03.2013 07:16 -2,9 C -3,8 C 68 % 1014,8 hPa 0,0 l/m 0 min 0 min 0,0 UV-I 42 W/m 20,6 km/h (4 Bft)
25.03.2013 07:18 -2,9 C -3,8 C 68 % 1014,8 hPa 0,0 l/m 0 min 0 min 0,0 UV-I 44 W/m 7,7 km/h (2 Bft)
25.03.2013 07:20 -2,9 C -3,2 C 68 % 1014,7 hPa 0,0 l/m 0 min 0 min 0,0 UV-I 47 W/m 12,9 km/h (3 Bft)
25.03.2013 07:22 -2,9 C -3,2 C 68 % 1014,8 hPa 0,0 l/m 0 min 0 min 0,0 UV-I 49 W/m 5,1 km/h (1 Bft)
25.03.2013 07:24 -2,9 C -3,2 C 68 % 1014,8 hPa 0,0 l/m 0 min 0 min 0,0 UV-I 51 W/m 28,3 km/h (4 Bft)
25.03.2013 07:26 -2,9 C -3,2 C 68 % 1014,7 hPa 0,0 l/m 0 min 0 min 0,0 UV-I 53 W/m 18,0 km/h (3 Bft)
25.03.2013 07:28 -2,9 C -3,2 C 68 % 1014,7 hPa 0,0 l/m 0 min 0 min 0,0 UV-I 53 W/m 12,9 km/h (3 Bft)
25.03.2013 07:30 -2,9 C -3,2 C 68 % 1014,7 hPa 0,0 l/m 0 min 0 min 0,0 UV-I 53 W/m 7,7 km/h (2 Bft)
25.03.2013 07:32 -2,9 C -3,2 C 68 % 1014,7 hPa 0,0 l/m 0 min 0 min 0,0 UV-I 54 W/m 20,6 km/h (4 Bft)
25.03.2013 07:34 -2,9 C -3,2 C 67 % 1014,8 hPa 0,0 l/m 0 min 0 min 0,0 UV-I 56 W/m 23,2 km/h (4 Bft)
25.03.2013 07:36 -2,9 C -3,2 C 67 % 1014,8 hPa 0,0 l/m 0 min 0 min 0,0 UV-I 56 W/m 20,6 km/h (4 Bft)
25.03.2013 07:38 -2,9 C -3,2 C 68 % 1014,7 hPa 0,0 l/m 0 min 0 min 0,0 UV-I 56 W/m 10,3 km/h (2 Bft)
25.03.2013 07:40 -2,9 C -3,2 C 68 % 1014,7 hPa 0,0 l/m 0 min 0 min 0,0 UV-I 54 W/m 10,3 km/h (2 Bft)
25.03.2013 07:42 -2,9 C -3,2 C 68 % 1014,7 hPa 0,0 l/m 0 min 0 min 0,0 UV-I 54 W/m 10,3 km/h (2 Bft)
25.03.2013 07:44 -2,8 C -3,2 C 67 % 1014,7 hPa 0,0 l/m 0 min 0 min 0,0 UV-I 56 W/m 12,9 km/h (3 Bft)
25.03.2013 07:46 -2,8 C -3,2 C 67 % 1014,7 hPa 0,0 l/m 0 min 0 min 0,0 UV-I 60 W/m 25,7 km/h (4 Bft)
25.03.2013 07:48 -2,8 C -3,2 C 67 % 1014,8 hPa 0,0 l/m 0 min 0 min 0,0 UV-I 62 W/m 12,9 km/h (3 Bft)
25.03.2013 07:50 -2,8 C -3,2 C 67 % 1014,8 hPa 0,0 l/m 0 min 0 min 0,0 UV-I 67 W/m 18,0 km/h (3 Bft)
25.03.2013 07:52 -2,8 C -3,2 C 67 % 1014,8 hPa 0,0 l/m 0 min 0 min 0,0 UV-I 70 W/m 28,3 km/h (4 Bft)
25.03.2013 07:54 -2,8 C -3,2 C 67 % 1014,8 hPa 0,0 l/m 0 min 0 min 0,0 UV-I 74 W/m 15,4 km/h (3 Bft)
25.03.2013 07:56 -2,8 C -3,2 C 67 % 1014,7 hPa 0,0 l/m 0 min 0 min 0,0 UV-I 74 W/m 30,9 km/h (5 Bft)
25.03.2013 07:58 -2,8 C -3,2 C 66 % 1014,8 hPa 0,0 l/m 0 min 0 min 0,0 UV-I 76 W/m 25,7 km/h (4 Bft)
25.03.2013 08:00 -2,8 C -3,2 C 67 % 1014,8 hPa 0,0 l/m 0 min 0 min 0,0 UV-I 77 W/m 30,9 km/h (5 Bft)
25.03.2013 08:02 -2,8 C -3,2 C 66 % 1014,9 hPa 0,0 l/m 0 min 0 min 0,0 UV-I 79 W/m 25,7 km/h (4 Bft)
25.03.2013 08:04 -2,8 C -3,2 C 67 % 1014,8 hPa 0,0 l/m 0 min 0 min 0,0 UV-I 79 W/m 5,1 km/h (1 Bft)
25.03.2013 08:06 -2,8 C -3,2 C 67 % 1014,8 hPa 0,0 l/m 0 min 0 min 0,0 UV-I 79 W/m 20,6 km/h (4 Bft)
25.03.2013 08:08 -2,8 C -2,7 C 67 % 1014,8 hPa 0,0 l/m 0 min 0 min 0,0 UV-I 79 W/m 7,7 km/h (2 Bft)
25.03.2013 08:10 -2,7 C -2,7 C 67 % 1014,8 hPa 0,0 l/m 0 min 0 min 0,0 UV-I 83 W/m 12,9 km/h (3 Bft)
25.03.2013 08:12 -2,7 C -2,7 C 67 % 1014,8 hPa 0,0 l/m 0 min 0 min 0,0 UV-I 88 W/m 15,4 km/h (3 Bft)
25.03.2013 08:14 -2,7 C -2,7 C 66 % 1014,8 hPa 0,0 l/m 0 min 0 min 0,0 UV-I 91 W/m 12,9 km/h (3 Bft)
25.03.2013 08:16 -2,7 C -2,7 C 66 % 1014,9 hPa 0,0 l/m 0 min 0 min 0,0 UV-I 95 W/m 23,2 km/h (4 Bft)
25.03.2013 08:18 -2,7 C -2,7 C 66 % 1014,8 hPa 0,0 l/m 0 min 0 min 0,0 UV-I 98 W/m 33,5 km/h (5 Bft)
25.03.2013 08:20 -2,7 C -2,7 C 66 % 1014,9 hPa 0,0 l/m 0 min 0 min 0,0 UV-I 102 W/m 23,2 km/h (4 Bft)
25.03.2013 08:22 -2,6 C -2,7 C 67 % 1014,8 hPa 0,0 l/m 0 min 0 min 0,0 UV-I 104 W/m 12,9 km/h (3 Bft)
25.03.2013 08:24 -2,6 C -2,7 C 67 % 1014,9 hPa 0,0 l/m 0 min 0 min 0,0 UV-I 109 W/m 20,6 km/h (4 Bft)
25.03.2013 08:26 -2,5 C -2,7 C 67 % 1014,9 hPa 0,0 l/m 0 min 0 min 0,0 UV-I 114 W/m 12,9 km/h (3 Bft)
25.03.2013 08:28 -2,5 C -2,1 C 67 % 1014,9 hPa 0,0 l/m 0 min 0 min 0,0 UV-I 121 W/m 18,0 km/h (3 Bft)
25.03.2013 08:30 -2,4 C -2,1 C 66 % 1014,9 hPa 0,0 l/m 0 min 0 min 0,0 UV-I 130 W/m 20,6 km/h (4 Bft)
25.03.2013 08:32 -2,4 C -2,7 C 66 % 1014,8 hPa 0,0 l/m 0 min 0 min 0,0 UV-I 132 W/m 28,3 km/h (4 Bft)
25.03.2013 08:34 -2,4 C -2,7 C 66 % 1014,9 hPa 0,0 l/m 0 min 0 min 0,0 UV-I 149 W/m 12,9 km/h (3 Bft)
25.03.2013 08:36 -2,4 C -2,1 C 66 % 1014,8 hPa 0,0 l/m 0 min 0 min 0,0 UV-I 165 W/m 18,0 km/h (3 Bft)
25.03.2013 08:38 -2,3 C -2,1 C 66 % 1014,8 hPa 0,0 l/m 0 min 0 min 0,0 UV-I 146 W/m 12,9 km/h (3 Bft)
25.03.2013 08:40 -2,3 C -2,1 C 66 % 1014,8 hPa 0,0 l/m 2 min 0 min 0,0 UV-I 200 W/m 15,4 km/h (3 Bft)
25.03.2013 08:42 -2,3 C -2,1 C 65 % 1014,9 hPa 0,0 l/m 2 min 0 min 0,0 UV-I 190 W/m 18,0 km/h (3 Bft)
25.03.2013 08:44 -2,2 C -2,1 C 65 % 1014,9 hPa 0,0 l/m 0 min 0 min 0,0 UV-I 188 W/m 12,9 km/h (3 Bft)
25.03.2013 08:46 -2,2 C -2,1 C 65 % 1014,9 hPa 0,0 l/m 0 min 0 min 0,0 UV-I 181 W/m 30,9 km/h (5 Bft)
25.03.2013 08:48 -2,1 C -2,1 C 64 % 1014,9 hPa 0,0 l/m 0 min 0 min 0,0 UV-I 183 W/m 18,0 km/h (3 Bft)
25.03.2013 08:50 -2,0 C -2,1 C 65 % 1014,9 hPa 0,0 l/m 2 min 0 min 0,0 UV-I 221 W/m 20,6 km/h (4 Bft)
25.03.2013 08:52 -2,0 C -2,1 C 64 % 1014,9 hPa 0,0 l/m 0 min 0 min 0,0 UV-I 200 W/m 18,0 km/h (3 Bft)
25.03.2013 08:54 -1,9 C -2,1 C 64 % 1014,9 hPa 0,0 l/m 2 min 0 min 0,0 UV-I 244 W/m 18,0 km/h (3 Bft)
25.03.2013 08:56 -1,9 C -2,1 C 64 % 1014,9 hPa 0,0 l/m 2 min 0 min 0,0 UV-I 239 W/m 18,0 km/h (3 Bft)
25.03.2013 08:58 -1,8 C -2,1 C 64 % 1014,9 hPa 0,0 l/m 2 min 0 min 0,0 UV-I 276 W/m 10,3 km/h (2 Bft)
25.03.2013 09:00 -1,8 C -2,1 C 64 % 1014,9 hPa 0,0 l/m 2 min 0 min 0,0 UV-I 346 W/m 18,0 km/h (3 Bft)
25.03.2013 09:02 -1,7 C -2,1 C 63 % 1014,9 hPa 0,0 l/m 2 min 0 min 0,0 UV-I 318 W/m 28,3 km/h (4 Bft)
25.03.2013 09:04 -1,7 C -2,1 C 63 % 1014,9 hPa 0,0 l/m 2 min 0 min 0,0 UV-I 341 W/m 12,9 km/h (3 Bft)
25.03.2013 09:06 -1,6 C -1,6 C 64 % 1014,9 hPa 0,0 l/m 2 min 0 min 0,0 UV-I 345 W/m 12,9 km/h (3 Bft)
25.03.2013 09:08 -1,4 C -1,6 C 63 % 1014,8 hPa 0,0 l/m 2 min 0 min 0,0 UV-I 346 W/m 15,4 km/h (3 Bft)
25.03.2013 09:10 -1,3 C -1,6 C 63 % 1014,8 hPa 0,0 l/m 2 min 0 min 0,0 UV-I 329 W/m 28,3 km/h (4 Bft)
25.03.2013 09:12 -1,3 C -1,6 C 62 % 1014,8 hPa 0,0 l/m 2 min 0 min 0,0 UV-I 343 W/m 20,6 km/h (4 Bft)
25.03.2013 09:14 -1,2 C -1,6 C 62 % 1014,8 hPa 0,0 l/m 2 min 0 min 0,0 UV-I 352 W/m 33,5 km/h (5 Bft)
25.03.2013 09:16 -1,2 C -1,6 C 62 % 1014,7 hPa 0,0 l/m 2 min 0 min 0,0 UV-I 350 W/m 15,4 km/h (3 Bft)
25.03.2013 09:18 -1,2 C -1,6 C 62 % 1014,8 hPa 0,0 l/m 2 min 0 min 0,0 UV-I 353 W/m 12,9 km/h (3 Bft)
25.03.2013 09:20 -1,1 C -1,6 C 62 % 1014,9 hPa 0,0 l/m 2 min 0 min 0,0 UV-I 353 W/m 15,4 km/h (3 Bft)
25.03.2013 09:22 -1,0 C -1,0 C 62 % 1014,8 hPa 0,0 l/m 2 min 0 min 0,0 UV-I 357 W/m 15,4 km/h (3 Bft)
25.03.2013 09:24 -0,9 C -1,0 C 61 % 1014,8 hPa 0,0 l/m 2 min 0 min 0,0 UV-I 360 W/m 10,3 km/h (2 Bft)
25.03.2013 09:26 -0,8 C -1,0 C 61 % 1014,8 hPa 0,0 l/m 2 min 0 min 0,0 UV-I 362 W/m 23,2 km/h (4 Bft)
25.03.2013 09:28 -0,7 C -1,0 C 62 % 1014,8 hPa 0,0 l/m 2 min 0 min 0,0 UV-I 366 W/m 25,7 km/h (4 Bft)
25.03.2013 09:30 -0,7 C -1,0 C 61 % 1014,8 hPa 0,0 l/m 2 min 0 min 0,0 UV-I 369 W/m 20,6 km/h (4 Bft)
25.03.2013 09:32 -0,6 C -1,0 C 61 % 1014,8 hPa 0,0 l/m 2 min 0 min 0,0 UV-I 373 W/m 18,0 km/h (3 Bft)
25.03.2013 09:34 -0,6 C -1,0 C 60 % 1014,8 hPa 0,0 l/m 2 min 0 min 0,0 UV-I 378 W/m 15,4 km/h (3 Bft)
25.03.2013 09:36 -0,6 C -1,0 C 61 % 1014,7 hPa 0,0 l/m 2 min 0 min 0,0 UV-I 383 W/m 28,3 km/h (4 Bft)
25.03.2013 09:38 -0,4 C -0,4 C 60 % 1014,8 hPa 0,0 l/m 2 min 0 min 0,0 UV-I 387 W/m 18,0 km/h (3 Bft)
25.03.2013 09:40 -0,4 C -1,0 C 59 % 1014,7 hPa 0,0 l/m 2 min 0 min 0,0 UV-I 390 W/m 25,7 km/h (4 Bft)
25.03.2013 09:42 -0,4 C -1,0 C 60 % 1014,7 hPa 0,0 l/m 2 min 0 min 0,0 UV-I 394 W/m 10,3 km/h (2 Bft)
25.03.2013 09:44 -0,4 C -0,4 C 60 % 1014,7 hPa 0,0 l/m 2 min 0 min 0,0 UV-I 397 W/m 20,6 km/h (4 Bft)
25.03.2013 09:46 -0,3 C -0,4 C 60 % 1014,7 hPa 0,0 l/m 2 min 0 min 0,0 UV-I 404 W/m 15,4 km/h (3 Bft)
25.03.2013 09:48 -0,3 C -0,4 C 60 % 1014,7 hPa 0,0 l/m 2 min 0 min 0,5 UV-I 408 W/m 18,0 km/h (3 Bft)
25.03.2013 09:50 -0,2 C -0,4 C 59 % 1014,7 hPa 0,0 l/m 2 min 0 min 0,5 UV-I 413 W/m 28,3 km/h (4 Bft)
25.03.2013 09:52 -0,2 C -0,4 C 59 % 1014,7 hPa 0,0 l/m 2 min 0 min 0,5 UV-I 415 W/m 15,4 km/h (3 Bft)
25.03.2013 09:54 -0,2 C -0,4 C 59 % 1014,7 hPa 0,0 l/m 2 min 0 min 0,5 UV-I 420 W/m 15,4 km/h (3 Bft)
25.03.2013 09:56 -0,1 C -0,4 C 60 % 1014,7 hPa 0,0 l/m 2 min 0 min 0,6 UV-I 422 W/m 18,0 km/h (3 Bft)
25.03.2013 09:58 -0,1 C -0,4 C 59 % 1014,7 hPa 0,0 l/m 2 min 0 min 0,6 UV-I 427 W/m 38,6 km/h (5 Bft)
25.03.2013 10:00 -0,1 C -0,4 C 58 % 1014,7 hPa 0,0 l/m 2 min 0 min 0,6 UV-I 431 W/m 36,0 km/h (5 Bft)
25.03.2013 10:02 -0,1 C -0,4 C 59 % 1014,7 hPa 0,0 l/m 2 min 0 min 0,6 UV-I 436 W/m 33,5 km/h (5 Bft)
25.03.2013 10:04 -0,1 C -0,4 C 58 % 1014,7 hPa 0,0 l/m 2 min 0 min 0,6 UV-I 439 W/m 30,9 km/h (5 Bft)
25.03.2013 10:06 -0,1 C -0,4 C 59 % 1014,6 hPa 0,0 l/m 2 min 0 min 0,7 UV-I 445 W/m 15,4 km/h (3 Bft)
25.03.2013 10:08 -0,1 C -0,4 C 59 % 1014,6 hPa 0,0 l/m 2 min 0 min 0,7 UV-I 446 W/m 12,9 km/h (3 Bft)
25.03.2013 10:10 0,0 C 0,1 C 59 % 1014,7 hPa 0,0 l/m 2 min 0 min 0,7 UV-I 450 W/m 12,9 km/h (3 Bft)
25.03.2013 10:12 0,1 C 0,1 C 59 % 1014,6 hPa 0,0 l/m 2 min 0 min 0,7 UV-I 452 W/m 23,2 km/h (4 Bft)
25.03.2013 10:14 0,1 C 0,1 C 58 % 1014,7 hPa 0,0 l/m 2 min 0 min 0,7 UV-I 452 W/m 23,2 km/h (4 Bft)
25.03.2013 10:16 0,2 C 0,1 C 58 % 1014,6 hPa 0,0 l/m 2 min 0 min 0,7 UV-I 448 W/m 18,0 km/h (3 Bft)
25.03.2013 10:18 0,2 C 0,1 C 59 % 1014,7 hPa 0,0 l/m 2 min 0 min 0,8 UV-I 438 W/m 28,3 km/h (4 Bft)
25.03.2013 10:20 0,2 C 0,1 C 59 % 1014,7 hPa 0,0 l/m 2 min 0 min 0,8 UV-I 466 W/m 12,9 km/h (3 Bft)
25.03.2013 10:22 0,3 C 0,1 C 58 % 1014,7 hPa 0,0 l/m 2 min 0 min 0,8 UV-I 476 W/m 23,2 km/h (4 Bft)
25.03.2013 10:24 0,3 C 0,1 C 58 % 1014,6 hPa 0,0 l/m 2 min 0 min 0,8 UV-I 480 W/m 25,7 km/h (4 Bft)
25.03.2013 10:26 0,4 C 0,1 C 58 % 1014,7 hPa 0,0 l/m 2 min 0 min 0,8 UV-I 471 W/m 15,4 km/h (3 Bft)
25.03.2013 10:28 0,4 C 0,1 C 57 % 1014,6 hPa 0,0 l/m 2 min 0 min 0,8 UV-I 443 W/m 15,4 km/h (3 Bft)
25.03.2013 10:30 0,4 C 0,1 C 58 % 1014,7 hPa 0,0 l/m 2 min 0 min 0,8 UV-I 462 W/m 18,0 km/h (3 Bft)
25.03.2013 10:32 0,5 C 0,7 C 58 % 1014,6 hPa 0,0 l/m 2 min 0 min 0,9 UV-I 468 W/m 20,6 km/h (4 Bft)
25.03.2013 10:34 0,6 C 0,7 C 58 % 1014,6 hPa 0,0 l/m 2 min 0 min 1,0 UV-I 499 W/m 20,6 km/h (4 Bft)
25.03.2013 10:36 0,7 C 0,7 C 58 % 1014,5 hPa 0,0 l/m 2 min 0 min 1,0 UV-I 504 W/m 15,4 km/h (3 Bft)
25.03.2013 10:38 0,7 C 0,7 C 57 % 1014,6 hPa 0,0 l/m 2 min 0 min 1,0 UV-I 504 W/m 15,4 km/h (3 Bft)
25.03.2013 10:40 0,8 C 0,7 C 57 % 1014,5 hPa 0,0 l/m 2 min 0 min 1,0 UV-I 508 W/m 12,9 km/h (3 Bft)
25.03.2013 10:42 0,8 C 0,7 C 57 % 1014,5 hPa 0,0 l/m 2 min 0 min 1,0 UV-I 510 W/m 12,9 km/h (3 Bft)
25.03.2013 10:44 0,9 C 0,7 C 57 % 1014,5 hPa 0,0 l/m 2 min 0 min 1,0 UV-I 512 W/m 15,4 km/h (3 Bft)
25.03.2013 10:46 0,9 C 0,7 C 56 % 1014,5 hPa 0,0 l/m 2 min 0 min 1,1 UV-I 517 W/m 30,9 km/h (5 Bft)
25.03.2013 10:48 0,9 C 0,7 C 56 % 1014,4 hPa 0,0 l/m 2 min 0 min 1,1 UV-I 522 W/m 23,2 km/h (4 Bft)
25.03.2013 10:50 1,0 C 0,7 C 56 % 1014,4 hPa 0,0 l/m 2 min 0 min 1,1 UV-I 522 W/m 7,7 km/h (2 Bft)
25.03.2013 10:52 1,1 C 1,2 C 57 % 1014,3 hPa 0,0 l/m 2 min 0 min 1,1 UV-I 526 W/m 15,4 km/h (3 Bft)
25.03.2013 10:54 1,2 C 1,2 C 56 % 1014,3 hPa 0,0 l/m 2 min 0 min 1,2 UV-I 531 W/m 20,6 km/h (4 Bft)
25.03.2013 10:56 1,3 C 1,2 C 56 % 1014,4 hPa 0,0 l/m 2 min 0 min 1,2 UV-I 541 W/m 20,6 km/h (4 Bft)
25.03.2013 10:58 1,3 C 1,2 C 56 % 1014,3 hPa 0,0 l/m 2 min 0 min 1,2 UV-I 543 W/m 20,6 km/h (4 Bft)
25.03.2013 11:00 1,3 C 1,2 C 55 % 1014,3 hPa 0,0 l/m 2 min 0 min 1,2 UV-I 548 W/m 15,4 km/h (3 Bft)
25.03.2013 11:02 1,3 C 1,2 C 55 % 1014,3 hPa 0,0 l/m 2 min 0 min 1,2 UV-I 559 W/m 12,9 km/h (3 Bft)
25.03.2013 11:04 1,4 C 1,2 C 55 % 1014,2 hPa 0,0 l/m 2 min 0 min 1,3 UV-I 570 W/m 18,0 km/h (3 Bft)
25.03.2013 11:06 1,5 C 1,8 C 55 % 1014,3 hPa 0,0 l/m 2 min 0 min 1,3 UV-I 566 W/m 36,0 km/h (5 Bft)
25.03.2013 11:08 1,6 C 1,2 C 54 % 1014,2 hPa 0,0 l/m 2 min 0 min 1,3 UV-I 552 W/m 30,9 km/h (5 Bft)
25.03.2013 11:10 1,5 C 1,2 C 53 % 1014,2 hPa 0,0 l/m 0 min 0 min 0,9 UV-I 306 W/m 28,3 km/h (4 Bft)
25.03.2013 11:12 1,4 C 0,7 C 54 % 1014,2 hPa 0,0 l/m 2 min 0 min 1,0 UV-I 367 W/m 15,4 km/h (3 Bft)
25.03.2013 11:14 1,3 C 0,7 C 55 % 1014,2 hPa 0,0 l/m 2 min 0 min 1,1 UV-I 427 W/m 12,9 km/h (3 Bft)
25.03.2013 11:16 1,3 C 1,2 C 55 % 1014,2 hPa 0,0 l/m 2 min 0 min 1,3 UV-I 592 W/m 15,4 km/h (3 Bft)
25.03.2013 11:18 1,4 C 1,2 C 54 % 1014,2 hPa 0,0 l/m 2 min 0 min 1,2 UV-I 469 W/m 18,0 km/h (3 Bft)
25.03.2013 11:20 1,4 C 1,2 C 54 % 1014,1 hPa 0,0 l/m 2 min 0 min 1,1 UV-I 439 W/m 18,0 km/h (3 Bft)
25.03.2013 11:22 1,4 C 1,2 C 55 % 1014,1 hPa 0,0 l/m 2 min 0 min 1,4 UV-I 589 W/m 12,9 km/h (3 Bft)
25.03.2013 11:24 1,6 C 1,8 C 55 % 1014,1 hPa 0,0 l/m 2 min 0 min 1,2 UV-I 610 W/m 15,4 km/h (3 Bft)
25.03.2013 11:26 1,6 C 1,2 C 54 % 1014,1 hPa 0,0 l/m 2 min 0 min 1,1 UV-I 397 W/m 18,0 km/h (3 Bft)
25.03.2013 11:28 1,6 C 1,2 C 54 % 1014,0 hPa 0,0 l/m 2 min 0 min 1,4 UV-I 438 W/m 18,0 km/h (3 Bft)
25.03.2013 11:30 1,6 C 1,8 C 55 % 1014,0 hPa 0,0 l/m 2 min 0 min 1,4 UV-I 534 W/m 25,7 km/h (4 Bft)
25.03.2013 11:32 1,7 C 1,8 C 54 % 1014,0 hPa 0,0 l/m 2 min 0 min 1,6 UV-I 631 W/m 23,2 km/h (4 Bft)
25.03.2013 11:34 1,7 C 2,3 C 54 % 1014,0 hPa 0,0 l/m 2 min 0 min 1,6 UV-I 642 W/m 20,6 km/h (4 Bft)
25.03.2013 11:36 1,8 C 2,3 C 55 % 1014,1 hPa 0,0 l/m 2 min 0 min 1,6 UV-I 599 W/m 10,3 km/h (2 Bft)
25.03.2013 11:38 2,0 C 2,9 C 55 % 1014,1 hPa 0,0 l/m 2 min 0 min 1,6 UV-I 510 W/m 15,4 km/h (3 Bft)
25.03.2013 11:40 2,1 C 2,9 C 55 % 1014,0 hPa 0,0 l/m 2 min 0 min 1,7 UV-I 661 W/m 18,0 km/h (3 Bft)
25.03.2013 11:42 2,2 C 2,9 C 54 % 1013,9 hPa 0,0 l/m 2 min 0 min 1,7 UV-I 608 W/m 15,4 km/h (3 Bft)
25.03.2013 11:44 2,3 C 2,9 C 54 % 1013,9 hPa 0,0 l/m 2 min 0 min 1,4 UV-I 508 W/m 25,7 km/h (4 Bft)
25.03.2013 11:46 2,4 C 2,9 C 54 % 1013,9 hPa 0,0 l/m 2 min 0 min 1,5 UV-I 573 W/m 12,9 km/h (3 Bft)
25.03.2013 11:48 2,4 C 2,9 C 53 % 1013,9 hPa 0,0 l/m 2 min 0 min 1,5 UV-I 663 W/m 20,6 km/h (4 Bft)
25.03.2013 11:50 2,5 C 2,9 C 53 % 1013,8 hPa 0,0 l/m 2 min 0 min 1,7 UV-I 686 W/m 30,9 km/h (5 Bft)
25.03.2013 11:52 2,6 C 2,9 C 53 % 1013,8 hPa 0,0 l/m 2 min 0 min 1,7 UV-I 675 W/m 18,0 km/h (3 Bft)
25.03.2013 11:54 2,7 C 3,4 C 52 % 1013,8 hPa 0,0 l/m 2 min 0 min 1,7 UV-I 664 W/m 18,0 km/h (3 Bft)
25.03.2013 11:56 2,7 C 2,9 C 53 % 1013,7 hPa 0,0 l/m 2 min 0 min 1,7 UV-I 654 W/m 12,9 km/h (3 Bft)
25.03.2013 11:58 2,8 C 2,9 C 53 % 1013,7 hPa 0,0 l/m 2 min 0 min 1,7 UV-I 656 W/m 15,4 km/h (3 Bft)
25.03.2013 12:00 2,9 C 3,4 C 52 % 1013,6 hPa 0,0 l/m 2 min 0 min 1,7 UV-I 661 W/m 23,2 km/h (4 Bft)
25.03.2013 12:02 2,9 C 2,9 C 52 % 1013,6 hPa 0,0 l/m 2 min 0 min 1,7 UV-I 664 W/m 15,4 km/h (3 Bft)
25.03.2013 12:04 3,0 C 3,4 C 52 % 1013,6 hPa 0,0 l/m 2 min 0 min 1,7 UV-I 664 W/m 12,9 km/h (3 Bft)
25.03.2013 12:06 3,1 C 3,4 C 52 % 1013,6 hPa 0,0 l/m 2 min 0 min 1,7 UV-I 661 W/m 12,9 km/h (3 Bft)
25.03.2013 12:08 3,1 C 2,9 C 51 % 1013,4 hPa 0,0 l/m 2 min 0 min 1,7 UV-I 661 W/m 23,2 km/h (4 Bft)
25.03.2013 12:10 3,1 C 2,9 C 52 % 1013,5 hPa 0,0 l/m 2 min 0 min 1,7 UV-I 663 W/m 18,0 km/h (3 Bft)
25.03.2013 12:12 3,1 C 3,4 C 52 % 1013,3 hPa 0,0 l/m 2 min 0 min 1,7 UV-I 659 W/m 12,9 km/h (3 Bft)
25.03.2013 12:14 3,2 C 3,4 C 52 % 1013,3 hPa 0,0 l/m 2 min 0 min 1,7 UV-I 661 W/m 10,3 km/h (2 Bft)
25.03.2013 12:16 3,3 C 3,4 C 52 % 1013,3 hPa 0,0 l/m 2 min 0 min 1,7 UV-I 657 W/m 23,2 km/h (4 Bft)
25.03.2013 12:18 3,3 C 3,4 C 51 % 1013,4 hPa 0,0 l/m 2 min 0 min 1,7 UV-I 612 W/m 15,4 km/h (3 Bft)
25.03.2013 12:20 3,4 C 3,4 C 51 % 1013,3 hPa 0,0 l/m 2 min 0 min 1,7 UV-I 635 W/m 18,0 km/h (3 Bft)
25.03.2013 12:22 3,3 C 2,9 C 50 % 1013,3 hPa 0,0 l/m 2 min 0 min 1,6 UV-I 601 W/m 25,7 km/h (4 Bft)
25.03.2013 12:24 3,3 C 2,9 C 51 % 1013,3 hPa 0,0 l/m 2 min 0 min 1,7 UV-I 652 W/m 15,4 km/h (3 Bft)
25.03.2013 12:26 3,3 C 3,4 C 51 % 1013,2 hPa 0,0 l/m 2 min 0 min 1,8 UV-I 673 W/m 12,9 km/h (3 Bft)
25.03.2013 12:28 3,3 C 2,9 C 51 % 1013,3 hPa 0,0 l/m 2 min 0 min 1,8 UV-I 666 W/m 12,9 km/h (3 Bft)
25.03.2013 12:30 3,4 C 2,9 C 50 % 1013,2 hPa 0,0 l/m 2 min 0 min 1,8 UV-I 657 W/m 20,6 km/h (4 Bft)
25.03.2013 12:32 3,4 C 3,4 C 50 % 1013,2 hPa 0,0 l/m 2 min 0 min 1,8 UV-I 657 W/m 23,2 km/h (4 Bft)
25.03.2013 12:34 3,4 C 3,4 C 50 % 1013,2 hPa 0,0 l/m 2 min 0 min 1,8 UV-I 659 W/m 23,2 km/h (4 Bft)
25.03.2013 12:36 3,5 C 3,4 C 51 % 1013,2 hPa 0,0 l/m 2 min 0 min 1,8 UV-I 643 W/m 15,4 km/h (3 Bft)
25.03.2013 12:38 3,7 C 3,4 C 51 % 1013,1 hPa 0,0 l/m 2 min 0 min 1,7 UV-I 638 W/m 10,3 km/h (2 Bft)
25.03.2013 12:40 3,7 C 3,4 C 51 % 1013,0 hPa 0,0 l/m 2 min 0 min 1,6 UV-I 622 W/m 15,4 km/h (3 Bft)
25.03.2013 12:42 3,8 C 3,4 C 51 % 1013,0 hPa 0,0 l/m 2 min 0 min 1,6 UV-I 605 W/m 12,9 km/h (3 Bft)
25.03.2013 12:44 3,9 C 3,4 C 50 % 1013,0 hPa 0,0 l/m 2 min 0 min 1,6 UV-I 601 W/m 12,9 km/h (3 Bft)
25.03.2013 12:46 4,0 C 3,4 C 50 % 1012,9 hPa 0,0 l/m 2 min 0 min 1,5 UV-I 559 W/m 15,4 km/h (3 Bft)
25.03.2013 12:48 4,1 C 3,4 C 50 % 1012,9 hPa 0,0 l/m 2 min 0 min 1,5 UV-I 547 W/m 15,4 km/h (3 Bft)
25.03.2013 12:50 4,1 C 3,4 C 49 % 1013,0 hPa 0,0 l/m 2 min 0 min 1,5 UV-I 585 W/m 25,7 km/h (4 Bft)
25.03.2013 12:52 4,1 C 3,4 C 49 % 1012,9 hPa 0,0 l/m 2 min 0 min 1,6 UV-I 596 W/m 15,4 km/h (3 Bft)
25.03.2013 12:54 4,0 C 3,4 C 49 % 1012,9 hPa 0,0 l/m 2 min 0 min 1,5 UV-I 573 W/m 12,9 km/h (3 Bft)
25.03.2013 12:56 4,0 C 3,4 C 50 % 1012,9 hPa 0,0 l/m 2 min 0 min 1,4 UV-I 522 W/m 15,4 km/h (3 Bft)
25.03.2013 12:58 4,0 C 3,4 C 49 % 1013,0 hPa 0,0 l/m 2 min 0 min 1,4 UV-I 512 W/m 18,0 km/h (3 Bft)
25.03.2013 13:00 3,9 C 3,4 C 50 % 1012,9 hPa 0,0 l/m 2 min 0 min 1,4 UV-I 499 W/m 25,7 km/h (4 Bft)
25.03.2013 13:02 3,8 C 2,9 C 48 % 1012,9 hPa 0,0 l/m 2 min 0 min 1,4 UV-I 469 W/m 18,0 km/h (3 Bft)
25.03.2013 13:04 3,7 C 2,9 C 49 % 1012,9 hPa 0,0 l/m 2 min 0 min 1,5 UV-I 554 W/m 15,4 km/h (3 Bft)
25.03.2013 13:06 3,7 C 2,9 C 49 % 1012,9 hPa 0,0 l/m 2 min 0 min 1,7 UV-I 626 W/m 18,0 km/h (3 Bft)
25.03.2013 13:08 3,7 C 2,9 C 49 % 1012,9 hPa 0,0 l/m 2 min 0 min 1,7 UV-I 633 W/m 20,6 km/h (4 Bft)
25.03.2013 13:10 3,6 C 3,4 C 49 % 1012,9 hPa 0,0 l/m 2 min 0 min 1,7 UV-I 635 W/m 20,6 km/h (4 Bft)
25.03.2013 13:12 3,7 C 3,4 C 50 % 1012,9 hPa 0,0 l/m 2 min 0 min 1,6 UV-I 591 W/m 23,2 km/h (4 Bft)
25.03.2013 13:14 3,7 C 3,4 C 49 % 1012,8 hPa 0,0 l/m 2 min 0 min 1,5 UV-I 598 W/m 23,2 km/h (4 Bft)
25.03.2013 13:16 3,7 C 2,9 C 49 % 1012,8 hPa 0,0 l/m 2 min 0 min 1,6 UV-I 601 W/m 20,6 km/h (4 Bft)
25.03.2013 13:18 3,7 C 3,4 C 50 % 1012,8 hPa 0,0 l/m 2 min 0 min 1,5 UV-I 594 W/m 15,4 km/h (3 Bft)
25.03.2013 13:20 3,8 C 3,4 C 50 % 1012,8 hPa 0,0 l/m 2 min 0 min 1,6 UV-I 608 W/m 18,0 km/h (3 Bft)
25.03.2013 13:22 3,9 C 3,4 C 50 % 1012,7 hPa 0,0 l/m 2 min 0 min 1,5 UV-I 606 W/m 12,9 km/h (3 Bft)
25.03.2013 13:24 4,0 C 4,0 C 50 % 1012,7 hPa 0,0 l/m 2 min 0 min 1,6 UV-I 626 W/m 18,0 km/h (3 Bft)
25.03.2013 13:26 4,1 C 3,4 C 48 % 1012,7 hPa 0,0 l/m 2 min 0 min 1,6 UV-I 622 W/m 23,2 km/h (4 Bft)
25.03.2013 13:28 4,1 C 4,0 C 49 % 1012,6 hPa 0,0 l/m 2 min 0 min 1,6 UV-I 619 W/m 18,0 km/h (3 Bft)
25.03.2013 13:30 4,1 C 4,0 C 48 % 1012,6 hPa 0,0 l/m 2 min 0 min 1,5 UV-I 599 W/m 20,6 km/h (4 Bft)
25.03.2013 13:32 4,2 C 4,0 C 49 % 1012,5 hPa 0,0 l/m 2 min 0 min 1,5 UV-I 592 W/m 12,9 km/h (3 Bft)
25.03.2013 13:34 4,3 C 4,0 C 50 % 1012,6 hPa 0,0 l/m 2 min 0 min 1,5 UV-I 635 W/m 15,4 km/h (3 Bft)
25.03.2013 13:36 4,4 C 4,0 C 49 % 1012,5 hPa 0,0 l/m 2 min 0 min 1,5 UV-I 610 W/m 23,2 km/h (4 Bft)
25.03.2013 13:38 4,5 C 4,6 C 49 % 1012,6 hPa 0,0 l/m 2 min 0 min 1,4 UV-I 594 W/m 12,9 km/h (3 Bft)
25.03.2013 13:40 4,6 C 4,0 C 48 % 1012,5 hPa 0,0 l/m 2 min 0 min 1,4 UV-I 582 W/m 18,0 km/h (3 Bft)
25.03.2013 13:42 4,6 C 4,0 C 48 % 1012,5 hPa 0,0 l/m 2 min 0 min 1,4 UV-I 591 W/m 20,6 km/h (4 Bft)
25.03.2013 13:44 4,7 C 4,0 C 48 % 1012,5 hPa 0,0 l/m 2 min 0 min 1,4 UV-I 601 W/m 12,9 km/h (3 Bft)
25.03.2013 13:46 4,7 C 4,0 C 47 % 1012,6 hPa 0,0 l/m 2 min 0 min 1,4 UV-I 610 W/m 33,5 km/h (5 Bft)
25.03.2013 13:48 4,7 C 4,0 C 47 % 1012,6 hPa 0,0 l/m 2 min 0 min 1,4 UV-I 601 W/m 36,0 km/h (5 Bft)
25.03.2013 13:50 4,7 C 4,0 C 48 % 1012,5 hPa 0,0 l/m 2 min 0 min 1,4 UV-I 610 W/m 18,0 km/h (3 Bft)
25.03.2013 13:52 4,7 C 4,0 C 48 % 1012,5 hPa 0,0 l/m 2 min 0 min 1,4 UV-I 612 W/m 23,2 km/h (4 Bft)
25.03.2013 13:54 4,8 C 4,0 C 47 % 1012,4 hPa 0,0 l/m 2 min 0 min 1,3 UV-I 559 W/m 20,6 km/h (4 Bft)
25.03.2013 13:56 4,7 C 4,0 C 47 % 1012,4 hPa 0,0 l/m 2 min 0 min 1,4 UV-I 608 W/m 18,0 km/h (3 Bft)
25.03.2013 13:58 4,7 C 4,0 C 47 % 1012,4 hPa 0,0 l/m 2 min 0 min 1,4 UV-I 612 W/m 18,0 km/h (3 Bft)
25.03.2013 14:00 4,8 C 4,6 C 48 % 1012,4 hPa 0,0 l/m 2 min 0 min 1,3 UV-I 563 W/m 15,4 km/h (3 Bft)
25.03.2013 14:02 4,8 C 4,0 C 48 % 1012,3 hPa 0,0 l/m 2 min 0 min 1,3 UV-I 585 W/m 25,7 km/h (4 Bft)
25.03.2013 14:04 4,8 C 4,0 C 47 % 1012,3 hPa 0,0 l/m 2 min 0 min 1,4 UV-I 633 W/m 20,6 km/h (4 Bft)
25.03.2013 14:06 4,8 C 4,0 C 47 % 1012,4 hPa 0,0 l/m 2 min 0 min 1,2 UV-I 536 W/m 20,6 km/h (4 Bft)
25.03.2013 14:08 4,7 C 4,0 C 46 % 1012,4 hPa 0,0 l/m 2 min 0 min 1,1 UV-I 461 W/m 28,3 km/h (4 Bft)
25.03.2013 14:10 4,7 C 4,0 C 46 % 1012,5 hPa 0,0 l/m 2 min 0 min 1,2 UV-I 547 W/m 43,8 km/h (6 Bft)
25.03.2013 14:12 4,6 C 4,0 C 47 % 1012,4 hPa 0,0 l/m 2 min 0 min 1,2 UV-I 571 W/m 43,8 km/h (6 Bft)
25.03.2013 14:14 4,5 C 4,0 C 47 % 1012,4 hPa 0,0 l/m 2 min 0 min 1,1 UV-I 571 W/m 18,0 km/h (3 Bft)
25.03.2013 14:16 4,5 C 4,0 C 47 % 1012,4 hPa 0,0 l/m 2 min 0 min 1,2 UV-I 656 W/m 23,2 km/h (4 Bft)
25.03.2013 14:18 4,5 C 4,0 C 46 % 1012,3 hPa 0,0 l/m 2 min 0 min 0,9 UV-I 656 W/m 36,0 km/h (5 Bft)
25.03.2013 14:20 4,6 C 4,0 C 48 % 1012,4 hPa 0,0 l/m 2 min 0 min 1,1 UV-I 554 W/m 23,2 km/h (4 Bft)
25.03.2013 14:22 4,6 C 4,0 C 47 % 1012,3 hPa 0,0 l/m 2 min 0 min 1,2 UV-I 624 W/m 25,7 km/h (4 Bft)
25.03.2013 14:24 4,6 C 4,0 C 48 % 1012,4 hPa 0,0 l/m 2 min 0 min 1,2 UV-I 659 W/m 20,6 km/h (4 Bft)
25.03.2013 14:26 4,7 C 4,6 C 47 % 1012,3 hPa 0,0 l/m 2 min 0 min 1,2 UV-I 636 W/m 20,6 km/h (4 Bft)
25.03.2013 14:28 4,7 C 4,6 C 47 % 1012,3 hPa 0,0 l/m 2 min 0 min 1,1 UV-I 587 W/m 23,2 km/h (4 Bft)
25.03.2013 14:30 4,7 C 4,6 C 47 % 1012,2 hPa 0,0 l/m 2 min 0 min 1,0 UV-I 568 W/m 36,0 km/h (5 Bft)
25.03.2013 14:32 4,8 C 4,6 C 48 % 1012,3 hPa 0,0 l/m 2 min 0 min 1,0 UV-I 508 W/m 18,0 km/h (3 Bft)
25.03.2013 14:34 4,8 C 4,6 C 48 % 1012,2 hPa 0,0 l/m 2 min 0 min 1,1 UV-I 642 W/m 18,0 km/h (3 Bft)
25.03.2013 14:36 4,9 C 5,1 C 48 % 1012,3 hPa 0,0 l/m 2 min 0 min 1,1 UV-I 582 W/m 20,6 km/h (4 Bft)
25.03.2013 14:38 5,0 C 5,1 C 47 % 1012,3 hPa 0,0 l/m 2 min 0 min 1,1 UV-I 654 W/m 33,5 km/h (5 Bft)
25.03.2013 14:40 5,0 C 4,6 C 47 % 1012,3 hPa 0,0 l/m 2 min 0 min 0,8 UV-I 483 W/m 33,5 km/h (5 Bft)
25.03.2013 14:42 5,0 C 4,6 C 47 % 1012,2 hPa 0,0 l/m 2 min 0 min 0,7 UV-I 350 W/m 23,2 km/h (4 Bft)
25.03.2013 14:44 4,9 C 4,0 C 47 % 1012,1 hPa 0,0 l/m 2 min 0 min 0,5 UV-I 316 W/m 20,6 km/h (4 Bft)
25.03.2013 14:46 4,8 C 4,0 C 47 % 1012,1 hPa 0,0 l/m 2 min 0 min 0,6 UV-I 325 W/m 15,4 km/h (3 Bft)
25.03.2013 14:48 4,7 C 4,0 C 47 % 1012,2 hPa 0,0 l/m 2 min 0 min 0,6 UV-I 341 W/m 15,4 km/h (3 Bft)
25.03.2013 14:50 4,7 C 4,0 C 47 % 1012,1 hPa 0,0 l/m 2 min 0 min 0,6 UV-I 353 W/m 38,6 km/h (5 Bft)
25.03.2013 14:52 4,6 C 4,0 C 47 % 1012,2 hPa 0,0 l/m 2 min 0 min 0,9 UV-I 622 W/m 41,2 km/h (6 Bft)
25.03.2013 14:54 4,5 C 4,0 C 47 % 1012,1 hPa 0,0 l/m 2 min 0 min 1,0 UV-I 526 W/m 20,6 km/h (4 Bft)
25.03.2013 14:56 4,6 C 4,6 C 48 % 1012,1 hPa 0,0 l/m 2 min 0 min 0,7 UV-I 399 W/m 18,0 km/h (3 Bft)
25.03.2013 14:58 4,6 C 4,6 C 47 % 1012,2 hPa 0,0 l/m 2 min 0 min 0,5 UV-I 350 W/m 15,4 km/h (3 Bft)
25.03.2013 15:00 4,6 C 4,6 C 49 % 1012,1 hPa 0,0 l/m 2 min 0 min 0,7 UV-I 489 W/m 20,6 km/h (4 Bft)
25.03.2013 15:02 4,6 C 4,6 C 48 % 1012,1 hPa 0,0 l/m 2 min 0 min 0,7 UV-I 594 W/m 15,4 km/h (3 Bft)
25.03.2013 15:04 4,6 C 4,6 C 48 % 1012,1 hPa 0,0 l/m 2 min 0 min 0,8 UV-I 468 W/m 23,2 km/h (4 Bft)
25.03.2013 15:06 4,6 C 4,6 C 47 % 1012,1 hPa 0,0 l/m 2 min 0 min 0,8 UV-I 561 W/m 20,6 km/h (4 Bft)
25.03.2013 15:08 4,7 C 5,1 C 48 % 1012,0 hPa 0,0 l/m 2 min 0 min 0,8 UV-I 554 W/m 18,0 km/h (3 Bft)
25.03.2013 15:10 4,8 C 5,1 C 48 % 1012,0 hPa 0,0 l/m 2 min 0 min 0,8 UV-I 545 W/m 15,4 km/h (3 Bft)
25.03.2013 15:12 4,8 C 5,1 C 48 % 1012,0 hPa 0,0 l/m 2 min 0 min 0,7 UV-I 527 W/m 18,0 km/h (3 Bft)
25.03.2013 15:14 4,9 C 5,7 C 48 % 1012,0 hPa 0,0 l/m 2 min 0 min 0,7 UV-I 524 W/m 18,0 km/h (3 Bft)
25.03.2013 15:16 5,0 C 5,1 C 48 % 1012,0 hPa 0,0 l/m 2 min 0 min 0,7 UV-I 517 W/m 23,2 km/h (4 Bft)
25.03.2013 15:18 5,1 C 5,1 C 47 % 1012,0 hPa 0,0 l/m 2 min 0 min 0,7 UV-I 510 W/m 23,2 km/h (4 Bft)
25.03.2013 15:20 5,1 C 5,1 C 47 % 1012,0 hPa 0,0 l/m 2 min 0 min 0,6 UV-I 503 W/m 20,6 km/h (4 Bft)
25.03.2013 15:22 5,1 C 5,1 C 47 % 1012,0 hPa 0,0 l/m 2 min 0 min 0,6 UV-I 489 W/m 20,6 km/h (4 Bft)
25.03.2013 15:24 5,1 C 5,1 C 47 % 1012,0 hPa 0,0 l/m 2 min 0 min 0,5 UV-I 448 W/m 18,0 km/h (3 Bft)
25.03.2013 15:26 5,1 C 5,7 C 48 % 1012,0 hPa 0,0 l/m 2 min 0 min 0,5 UV-I 439 W/m 7,7 km/h (2 Bft)
25.03.2013 15:28 5,1 C 5,7 C 48 % 1011,9 hPa 0,0 l/m 2 min 0 min 0,5 UV-I 417 W/m 15,4 km/h (3 Bft)
25.03.2013 15:30 5,1 C 6,8 C 47 % 1012,0 hPa 0,0 l/m 2 min 0 min 0,5 UV-I 429 W/m 20,6 km/h (4 Bft)
25.03.2013 15:32 5,1 C 6,8 C 47 % 1011,9 hPa 0,0 l/m 2 min 0 min 0,5 UV-I 457 W/m 18,0 km/h (3 Bft)
25.03.2013 15:34 5,1 C 7,3 C 48 % 1011,9 hPa 0,0 l/m 2 min 0 min 0,5 UV-I 455 W/m 23,2 km/h (4 Bft)
25.03.2013 15:36 5,0 C 7,3 C 47 % 1011,8 hPa 0,0 l/m 2 min 0 min 0,0 UV-I 452 W/m 15,4 km/h (3 Bft)
25.03.2013 15:38 5,0 C 7,9 C 47 % 1011,8 hPa 0,0 l/m 2 min 0 min 0,0 UV-I 445 W/m 20,6 km/h (4 Bft)
25.03.2013 15:40 5,0 C 7,9 C 47 % 1011,9 hPa 0,0 l/m 2 min 0 min 0,0 UV-I 436 W/m 30,9 km/h (5 Bft)
25.03.2013 15:42 4,9 C 7,3 C 46 % 1011,9 hPa 0,0 l/m 2 min 0 min 0,0 UV-I 438 W/m 28,3 km/h (4 Bft)
25.03.2013 15:44 4,8 C 7,3 C 48 % 1011,8 hPa 0,0 l/m 2 min 0 min 0,0 UV-I 434 W/m 20,6 km/h (4 Bft)
25.03.2013 15:46 4,8 C 7,3 C 47 % 1011,7 hPa 0,0 l/m 2 min 0 min 0,0 UV-I 432 W/m 36,0 km/h (5 Bft)
25.03.2013 15:48 4,8 C 7,3 C 47 % 1011,8 hPa 0,0 l/m 2 min 0 min 0,0 UV-I 427 W/m 23,2 km/h (4 Bft)
25.03.2013 15:50 4,7 C 7,3 C 47 % 1011,8 hPa 0,0 l/m 2 min 0 min 0,0 UV-I 418 W/m 25,7 km/h (4 Bft)
25.03.2013 15:52 4,6 C 7,3 C 47 % 1011,8 hPa 0,0 l/m 2 min 0 min 0,0 UV-I 413 W/m 23,2 km/h (4 Bft)
25.03.2013 15:54 4,6 C 7,9 C 47 % 1011,9 hPa 0,0 l/m 2 min 0 min 0,0 UV-I 415 W/m 12,9 km/h (3 Bft)
25.03.2013 15:56 4,7 C 7,9 C 47 % 1011,8 hPa 0,0 l/m 2 min 0 min 0,0 UV-I 415 W/m 28,3 km/h (4 Bft)
25.03.2013 15:58 4,7 C 7,9 C 47 % 1011,9 hPa 0,0 l/m 2 min 0 min 0,0 UV-I 396 W/m 15,4 km/h (3 Bft)
25.03.2013 16:00 4,7 C 7,3 C 48 % 1011,9 hPa 0,0 l/m 2 min 0 min 0,0 UV-I 399 W/m 18,0 km/h (3 Bft)
25.03.2013 16:02 4,7 C 6,2 C 47 % 1012,0 hPa 0,0 l/m 2 min 0 min 0,0 UV-I 397 W/m 18,0 km/h (3 Bft)
25.03.2013 16:04 4,7 C 5,7 C 46 % 1012,1 hPa 0,0 l/m 2 min 0 min 0,0 UV-I 366 W/m 38,6 km/h (5 Bft)
25.03.2013 16:06 4,6 C 5,1 C 48 % 1012,0 hPa 0,0 l/m 2 min 0 min 0,0 UV-I 360 W/m 20,6 km/h (4 Bft)
25.03.2013 16:08 4,6 C 5,1 C 47 % 1012,0 hPa 0,0 l/m 2 min 0 min 0,0 UV-I 396 W/m 18,0 km/h (3 Bft)
25.03.2013 16:10 4,5 C 4,6 C 48 % 1012,0 hPa 0,0 l/m 2 min 0 min 0,0 UV-I 396 W/m 18,0 km/h (3 Bft)
25.03.2013 16:12 4,5 C 4,6 C 48 % 1011,9 hPa 0,0 l/m 2 min 0 min 0,0 UV-I 394 W/m 20,6 km/h (4 Bft)
25.03.2013 16:14 4,5 C 4,6 C 48 % 1011,9 hPa 0,0 l/m 2 min 0 min 0,0 UV-I 394 W/m 18,0 km/h (3 Bft)
25.03.2013 16:16 4,5 C 4,6 C 47 % 1012,1 hPa 0,0 l/m 2 min 0 min 0,0 UV-I 390 W/m 20,6 km/h (4 Bft)
25.03.2013 16:18 4,4 C 4,0 C 47 % 1012,1 hPa 0,0 l/m 2 min 0 min 0,0 UV-I 357 W/m 23,2 km/h (4 Bft)
25.03.2013 16:20 4,4 C 4,0 C 49 % 1012,1 hPa 0,0 l/m 2 min 0 min 0,0 UV-I 267 W/m 15,4 km/h (3 Bft)
25.03.2013 16:22 4,4 C 4,0 C 48 % 1012,1 hPa 0,0 l/m 2 min 0 min 0,0 UV-I 278 W/m 18,0 km/h (3 Bft)
25.03.2013 16:24 4,3 C 4,0 C 48 % 1012,1 hPa 0,0 l/m 2 min 0 min 0,0 UV-I 381 W/m 20,6 km/h (4 Bft)
25.03.2013 16:26 4,3 C 4,0 C 48 % 1012,1 hPa 0,0 l/m 2 min 0 min 0,0 UV-I 366 W/m 25,7 km/h (4 Bft)
25.03.2013 16:28 4,3 C 4,0 C 49 % 1012,0 hPa 0,0 l/m 2 min 0 min 0,0 UV-I 367 W/m 18,0 km/h (3 Bft)
25.03.2013 16:30 4,3 C 4,0 C 49 % 1011,9 hPa 0,0 l/m 2 min 0 min 0,0 UV-I 225 W/m 12,9 km/h (3 Bft)
25.03.2013 16:32 4,3 C 4,0 C 49 % 1011,9 hPa 0,0 l/m 2 min 0 min 0,0 UV-I 202 W/m 18,0 km/h (3 Bft)
25.03.2013 16:34 4,3 C 3,4 C 48 % 1011,9 hPa 0,0 l/m 2 min 0 min 0,0 UV-I 230 W/m 33,5 km/h (5 Bft)
25.03.2013 16:36 4,2 C 3,4 C 48 % 1011,9 hPa 0,0 l/m 2 min 0 min 0,0 UV-I 332 W/m 15,4 km/h (3 Bft)
25.03.2013 16:38 4,2 C 3,4 C 48 % 1011,9 hPa 0,0 l/m 2 min 0 min 0,0 UV-I 339 W/m 23,2 km/h (4 Bft)
25.03.2013 16:40 4,1 C 3,4 C 48 % 1012,0 hPa 0,0 l/m 2 min 0 min 0,0 UV-I 285 W/m 20,6 km/h (4 Bft)
25.03.2013 16:42 4,1 C 3,4 C 49 % 1011,9 hPa 0,0 l/m 2 min 0 min 0,0 UV-I 279 W/m 23,2 km/h (4 Bft)
25.03.2013 16:44 4,1 C 3,4 C 48 % 1011,9 hPa 0,0 l/m 2 min 0 min 0,0 UV-I 243 W/m 18,0 km/h (3 Bft)
25.03.2013 16:46 3,9 C 3,4 C 48 % 1011,9 hPa 0,0 l/m 2 min 0 min 0,0 UV-I 269 W/m 33,5 km/h (5 Bft)
25.03.2013 16:48 3,9 C 2,9 C 48 % 1011,9 hPa 0,0 l/m 2 min 0 min 0,0 UV-I 299 W/m 36,0 km/h (5 Bft)
25.03.2013 16:50 3,8 C 3,4 C 49 % 1011,8 hPa 0,0 l/m 2 min 0 min 0,0 UV-I 301 W/m 25,7 km/h (4 Bft)
25.03.2013 16:52 3,8 C 3,4 C 49 % 1012,1 hPa 0,0 l/m 2 min 0 min 0,0 UV-I 276 W/m 18,0 km/h (3 Bft)
25.03.2013 16:54 3,8 C 3,4 C 49 % 1012,0 hPa 0,0 l/m 2 min 0 min 0,0 UV-I 283 W/m 20,6 km/h (4 Bft)
25.03.2013 16:56 3,8 C 3,4 C 49 % 1011,9 hPa 0,0 l/m 2 min 0 min 0,0 UV-I 262 W/m 15,4 km/h (3 Bft)
25.03.2013 16:58 3,8 C 3,4 C 50 % 1011,8 hPa 0,0 l/m 2 min 0 min 0,0 UV-I 232 W/m 18,0 km/h (3 Bft)
25.03.2013 17:00 3,8 C 3,4 C 50 % 1011,9 hPa 0,0 l/m 2 min 0 min 0,0 UV-I 269 W/m 18,0 km/h (3 Bft)
25.03.2013 17:02 3,8 C 2,9 C 50 % 1012,0 hPa 0,0 l/m 2 min 0 min 0,0 UV-I 241 W/m 20,6 km/h (4 Bft)
25.03.2013 17:04 3,7 C 2,9 C 50 % 1012,0 hPa 0,0 l/m 2 min 0 min 0,0 UV-I 257 W/m 20,6 km/h (4 Bft)
25.03.2013 17:06 3,7 C 2,9 C 49 % 1012,0 hPa 0,0 l/m 2 min 0 min 0,0 UV-I 244 W/m 23,2 km/h (4 Bft)
25.03.2013 17:08 3,6 C 2,9 C 50 % 1012,0 hPa 0,0 l/m 2 min 0 min 0,0 UV-I 234 W/m 23,2 km/h (4 Bft)
25.03.2013 17:10 3,5 C 2,9 C 50 % 1011,9 hPa 0,0 l/m 2 min 0 min 0,0 UV-I 229 W/m 15,4 km/h (3 Bft)
25.03.2013 17:12 3,5 C 2,9 C 50 % 1012,0 hPa 0,0 l/m 2 min 0 min 0,0 UV-I 218 W/m 25,7 km/h (4 Bft)
25.03.2013 17:14 3,4 C 2,3 C 50 % 1012,0 hPa 0,0 l/m 2 min 0 min 0,0 UV-I 209 W/m 23,2 km/h (4 Bft)
25.03.2013 17:16 3,4 C 2,3 C 50 % 1012,0 hPa 0,0 l/m 2 min 0 min 0,0 UV-I 211 W/m 23,2 km/h (4 Bft)
25.03.2013 17:18 3,4 C 2,3 C 50 % 1011,9 hPa 0,0 l/m 2 min 0 min 0,0 UV-I 197 W/m 18,0 km/h (3 Bft)
25.03.2013 17:20 3,3 C 2,3 C 50 % 1012,0 hPa 0,0 l/m 2 min 0 min 0,0 UV-I 156 W/m 18,0 km/h (3 Bft)
25.03.2013 17:22 3,3 C 2,3 C 51 % 1011,9 hPa 0,0 l/m 2 min 0 min 0,0 UV-I 195 W/m 20,6 km/h (4 Bft)
25.03.2013 17:24 3,3 C 2,3 C 51 % 1012,0 hPa 0,0 l/m 2 min 0 min 0,0 UV-I 148 W/m 20,6 km/h (4 Bft)
25.03.2013 17:26 3,2 C 2,3 C 50 % 1012,1 hPa 0,0 l/m 2 min 0 min 0,0 UV-I 137 W/m 30,9 km/h (5 Bft)
25.03.2013 17:28 3,1 C 1,8 C 51 % 1012,1 hPa 0,0 l/m 0 min 0 min 0,0 UV-I 79 W/m 20,6 km/h (4 Bft)
25.03.2013 17:30 3,1 C 1,8 C 50 % 1011,9 hPa 0,0 l/m 0 min 0 min 0,0 UV-I 72 W/m 18,0 km/h (3 Bft)
25.03.2013 17:32 3,0 C 1,8 C 51 % 1011,9 hPa 0,0 l/m 0 min 0 min 0,0 UV-I 84 W/m 15,4 km/h (3 Bft)
25.03.2013 17:34 2,9 C 1,8 C 52 % 1011,9 hPa 0,0 l/m 2 min 0 min 0,0 UV-I 118 W/m 15,4 km/h (3 Bft)
25.03.2013 17:36 2,8 C 1,8 C 52 % 1011,9 hPa 0,0 l/m 2 min 0 min 0,0 UV-I 132 W/m 15,4 km/h (3 Bft)
25.03.2013 17:38 2,8 C 1,8 C 52 % 1011,9 hPa 0,0 l/m 0 min 0 min 0,0 UV-I 81 W/m 25,7 km/h (4 Bft)
25.03.2013 17:40 2,7 C 1,8 C 52 % 1012,0 hPa 0,0 l/m 0 min 0 min 0,0 UV-I 60 W/m 20,6 km/h (4 Bft)
25.03.2013 17:42 2,7 C 1,2 C 52 % 1011,9 hPa 0,0 l/m 0 min 0 min 0,0 UV-I 65 W/m 12,9 km/h (3 Bft)
25.03.2013 17:44 2,6 C 1,2 C 53 % 1012,0 hPa 0,0 l/m 0 min 0 min 0,0 UV-I 65 W/m 12,9 km/h (3 Bft)
25.03.2013 17:46 2,6 C 1,2 C 53 % 1012,0 hPa 0,0 l/m 0 min 0 min 0,0 UV-I 67 W/m 15,4 km/h (3 Bft)
25.03.2013 17:48 2,4 C 1,2 C 53 % 1012,0 hPa 0,0 l/m 0 min 0 min 0,0 UV-I 72 W/m 20,6 km/h (4 Bft)
25.03.2013 17:50 2,4 C 1,2 C 53 % 1012,0 hPa 0,0 l/m 0 min 0 min 0,0 UV-I 70 W/m 30,9 km/h (5 Bft)
25.03.2013 17:52 2,3 C 1,2 C 53 % 1012,0 hPa 0,0 l/m 0 min 0 min 0,0 UV-I 56 W/m 15,4 km/h (3 Bft)
25.03.2013 17:54 2,3 C 1,2 C 53 % 1012,0 hPa 0,0 l/m 0 min 0 min 0,0 UV-I 56 W/m 18,0 km/h (3 Bft)
25.03.2013 17:56 2,3 C 1,2 C 53 % 1012,0 hPa 0,0 l/m 0 min 0 min 0,0 UV-I 70 W/m 15,4 km/h (3 Bft)
25.03.2013 17:58 2,2 C 1,2 C 54 % 1012,0 hPa 0,0 l/m 0 min 0 min 0,0 UV-I 58 W/m 15,4 km/h (3 Bft)
25.03.2013 18:00 2,2 C 1,2 C 54 % 1012,1 hPa 0,0 l/m 0 min 0 min 0,0 UV-I 35 W/m 10,3 km/h (2 Bft)
25.03.2013 18:02 2,2 C 0,7 C 54 % 1012,2 hPa 0,0 l/m 0 min 0 min 0,0 UV-I 32 W/m 12,9 km/h (3 Bft)
25.03.2013 18:04 2,1 C 0,7 C 54 % 1012,0 hPa 0,0 l/m 0 min 0 min 0,0 UV-I 30 W/m 18,0 km/h (3 Bft)
25.03.2013 18:06 2,1 C 0,7 C 54 % 1012,0 hPa 0,0 l/m 0 min 0 min 0,0 UV-I 30 W/m 18,0 km/h (3 Bft)
25.03.2013 18:08 2,0 C 0,7 C 54 % 1012,0 hPa 0,0 l/m 0 min 0 min 0,0 UV-I 28 W/m 15,4 km/h (3 Bft)
25.03.2013 18:10 1,9 C 0,7 C 54 % 1012,0 hPa 0,0 l/m 0 min 0 min 0,0 UV-I 26 W/m 15,4 km/h (3 Bft)
25.03.2013 18:12 1,9 C 0,7 C 54 % 1012,1 hPa 0,0 l/m 0 min 0 min 0,0 UV-I 23 W/m 25,7 km/h (4 Bft)
25.03.2013 18:14 1,8 C 0,7 C 54 % 1012,1 hPa 0,0 l/m 0 min 0 min 0,0 UV-I 21 W/m 12,9 km/h (3 Bft)
25.03.2013 18:16 1,8 C 0,1 C 54 % 1012,2 hPa 0,0 l/m 0 min 0 min 0,0 UV-I 18 W/m 10,3 km/h (2 Bft)
25.03.2013 18:18 1,8 C 0,1 C 55 % 1012,2 hPa 0,0 l/m 0 min 0 min 0,0 UV-I 16 W/m 10,3 km/h (2 Bft)
25.03.2013 18:20 1,7 C 0,1 C 55 % 1012,2 hPa 0,0 l/m 0 min 0 min 0,0 UV-I 16 W/m 10,3 km/h (2 Bft)
25.03.2013 18:22 1,7 C 0,1 C 55 % 1012,3 hPa 0,0 l/m 0 min 0 min 0,0 UV-I 14 W/m 30,9 km/h (5 Bft)
25.03.2013 18:24 1,6 C 0,1 C 55 % 1012,2 hPa 0,0 l/m 0 min 0 min 0,0 UV-I 14 W/m 12,9 km/h (3 Bft)
25.03.2013 18:26 1,6 C 0,1 C 55 % 1012,3 hPa 0,0 l/m 0 min 0 min 0,0 UV-I 12 W/m 15,4 km/h (3 Bft)
25.03.2013 18:28 1,5 C 0,1 C 55 % 1012,2 hPa 0,0 l/m 0 min 0 min 0,0 UV-I 12 W/m 15,4 km/h (3 Bft)
25.03.2013 18:30 1,4 C 0,1 C 55 % 1012,3 hPa 0,0 l/m 0 min 0 min 0,0 UV-I 11 W/m 15,4 km/h (3 Bft)
25.03.2013 18:32 1,3 C 0,1 C 55 % 1012,3 hPa 0,0 l/m 0 min 0 min 0,0 UV-I 11 W/m 18,0 km/h (3 Bft)
25.03.2013 18:34 1,3 C 0,1 C 56 % 1012,4 hPa 0,0 l/m 0 min 0 min 0,0 UV-I 9 W/m 10,3 km/h (2 Bft)
25.03.2013 18:36 1,3 C -0,4 C 56 % 1012,3 hPa 0,0 l/m 0 min 0 min 0,0 UV-I 9 W/m 10,3 km/h (2 Bft)
25.03.2013 18:38 1,3 C -0,4 C 56 % 1012,4 hPa 0,0 l/m 0 min 0 min 0,0 UV-I 9 W/m 15,4 km/h (3 Bft)
25.03.2013 18:40 1,3 C -0,4 C 56 % 1012,4 hPa 0,0 l/m 0 min 0 min 0,0 UV-I 7 W/m 15,4 km/h (3 Bft)
25.03.2013 18:42 1,3 C -0,4 C 56 % 1012,5 hPa 0,0 l/m 0 min 0 min 0,0 UV-I 7 W/m 18,0 km/h (3 Bft)
25.03.2013 18:44 1,3 C -0,4 C 56 % 1012,4 hPa 0,0 l/m 0 min 0 min 0,0 UV-I 7 W/m 12,9 km/h (3 Bft)
25.03.2013 18:46 1,3 C -0,4 C 56 % 1012,4 hPa 0,0 l/m 0 min 0 min 0,0 UV-I 5 W/m 15,4 km/h (3 Bft)
25.03.2013 18:48 1,2 C -0,4 C 56 % 1012,4 hPa 0,0 l/m 0 min 0 min 0,0 UV-I 5 W/m 10,3 km/h (2 Bft)
25.03.2013 18:50 1,2 C -0,4 C 56 % 1012,4 hPa 0,0 l/m 0 min 0 min 0,0 UV-I 5 W/m 20,6 km/h (4 Bft)
25.03.2013 18:52 1,2 C -0,4 C 56 % 1012,4 hPa 0,0 l/m 0 min 0 min 0,0 UV-I 5 W/m 20,6 km/h (4 Bft)
25.03.2013 18:54 1,2 C -0,4 C 56 % 1012,4 hPa 0,0 l/m 0 min 0 min 0,0 UV-I 0 W/m 12,9 km/h (3 Bft)
25.03.2013 18:56 1,1 C -0,4 C 56 % 1012,4 hPa 0,0 l/m 0 min 0 min 0,0 UV-I 0 W/m 20,6 km/h (4 Bft)
25.03.2013 18:58 1,1 C -0,4 C 57 % 1012,5 hPa 0,0 l/m 0 min 0 min 0,0 UV-I 0 W/m 15,4 km/h (3 Bft)
25.03.2013 19:00 1,1 C -0,4 C 57 % 1012,5 hPa 0,0 l/m 0 min 0 min 0,0 UV-I 0 W/m 12,9 km/h (3 Bft)
25.03.2013 19:02 1,0 C -0,4 C 56 % 1012,5 hPa 0,0 l/m 0 min 0 min 0,0 UV-I 0 W/m 23,2 km/h (4 Bft)
25.03.2013 19:04 1,0 C -0,4 C 57 % 1012,6 hPa 0,0 l/m 0 min 0 min 0,0 UV-I 0 W/m 18,0 km/h (3 Bft)
25.03.2013 19:06 0,9 C -0,4 C 57 % 1012,6 hPa 0,0 l/m 0 min 0 min 0,0 UV-I 0 W/m 25,7 km/h (4 Bft)
25.03.2013 19:08 0,9 C -0,4 C 57 % 1012,6 hPa 0,0 l/m 0 min 0 min 0,0 UV-I 0 W/m 30,9 km/h (5 Bft)
25.03.2013 19:10 0,9 C -0,4 C 57 % 1012,6 hPa 0,0 l/m 0 min 0 min 0,0 UV-I 0 W/m 18,0 km/h (3 Bft)
25.03.2013 19:12 0,9 C -0,4 C 56 % 1012,7 hPa 0,0 l/m 0 min 0 min 0,0 UV-I 0 W/m 33,5 km/h (5 Bft)
25.03.2013 19:14 0,9 C -0,4 C 57 % 1012,7 hPa 0,0 l/m 0 min 0 min 0,0 UV-I 0 W/m 18,0 km/h (3 Bft)
25.03.2013 19:16 0,9 C -0,4 C 57 % 1012,8 hPa 0,0 l/m 0 min 0 min 0,0 UV-I 0 W/m 12,9 km/h (3 Bft)
25.03.2013 19:18 0,9 C -0,4 C 57 % 1012,7 hPa 0,0 l/m 0 min 0 min 0,0 UV-I 0 W/m 10,3 km/h (2 Bft)
25.03.2013 19:20 0,8 C -0,4 C 57 % 1012,7 hPa 0,0 l/m 0 min 0 min 0,0 UV-I 0 W/m 30,9 km/h (5 Bft)
25.03.2013 19:22 0,8 C -0,4 C 57 % 1012,7 hPa 0,0 l/m 0 min 0 min 0,0 UV-I 0 W/m 12,9 km/h (3 Bft)
25.03.2013 19:24 0,8 C -1,0 C 57 % 1012,6 hPa 0,0 l/m 0 min 0 min 0,0 UV-I 0 W/m 7,7 km/h (2 Bft)
25.03.2013 19:26 0,8 C -1,0 C 57 % 1012,7 hPa 0,0 l/m 0 min 0 min 0,0 UV-I 0 W/m 15,4 km/h (3 Bft)
25.03.2013 19:28 0,8 C -1,0 C 57 % 1012,7 hPa 0,0 l/m 0 min 0 min 0,0 UV-I 0 W/m 15,4 km/h (3 Bft)
25.03.2013 19:30 0,8 C -0,4 C 57 % 1012,6 hPa 0,0 l/m 0 min 0 min 0,0 UV-I 0 W/m 23,2 km/h (4 Bft)
25.03.2013 19:32 0,7 C -1,0 C 57 % 1012,6 hPa 0,0 l/m 0 min 0 min 0,0 UV-I 0 W/m 18,0 km/h (3 Bft)
25.03.2013 19:34 0,7 C -1,0 C 57 % 1012,6 hPa 0,0 l/m 0 min 0 min 0,0 UV-I 0 W/m 10,3 km/h (2 Bft)
25.03.2013 19:36 0,7 C -1,0 C 57 % 1012,7 hPa 0,0 l/m 0 min 0 min 0,0 UV-I 0 W/m 12,9 km/h (3 Bft)
25.03.2013 19:38 0,7 C -1,0 C 58 % 1012,7 hPa 0,0 l/m 0 min 0 min 0,0 UV-I 0 W/m 15,4 km/h (3 Bft)
25.03.2013 19:40 0,7 C -1,0 C 57 % 1012,8 hPa 0,0 l/m 0 min 0 min 0,0 UV-I 0 W/m 12,9 km/h (3 Bft)
25.03.2013 19:42 0,7 C -1,0 C 58 % 1012,8 hPa 0,0 l/m 0 min 0 min 0,0 UV-I 0 W/m 15,4 km/h (3 Bft)
25.03.2013 19:44 0,7 C -1,0 C 58 % 1012,8 hPa 0,0 l/m 0 min 0 min 0,0 UV-I 0 W/m 12,9 km/h (3 Bft)
25.03.2013 19:46 0,6 C -1,0 C 58 % 1012,7 hPa 0,0 l/m 0 min 0 min 0,0 UV-I 0 W/m 15,4 km/h (3 Bft)
25.03.2013 19:48 0,6 C -1,0 C 58 % 1012,8 hPa 0,0 l/m 0 min 0 min 0,0 UV-I 0 W/m 15,4 km/h (3 Bft)
25.03.2013 19:50 0,6 C -1,0 C 58 % 1012,8 hPa 0,0 l/m 0 min 0 min 0,0 UV-I 0 W/m 25,7 km/h (4 Bft)
25.03.2013 19:52 0,6 C -1,0 C 58 % 1012,8 hPa 0,0 l/m 0 min 0 min 0,0 UV-I 0 W/m 18,0 km/h (3 Bft)
25.03.2013 19:54 0,6 C -1,0 C 58 % 1012,8 hPa 0,0 l/m 0 min 0 min 0,0 UV-I 0 W/m 18,0 km/h (3 Bft)
25.03.2013 19:56 0,6 C -1,0 C 58 % 1012,8 hPa 0,0 l/m 0 min 0 min 0,0 UV-I 0 W/m 10,3 km/h (2 Bft)
25.03.2013 19:58 0,5 C -1,0 C 58 % 1012,9 hPa 0,0 l/m 0 min 0 min 0,0 UV-I 0 W/m 7,7 km/h (2 Bft)
25.03.2013 20:00 0,5 C -1,0 C 59 % 1012,9 hPa 0,0 l/m 0 min 0 min 0,0 UV-I 0 W/m 10,3 km/h (2 Bft)
25.03.2013 20:02 0,4 C -1,0 C 59 % 1012,9 hPa 0,0 l/m 0 min 0 min 0,0 UV-I 0 W/m 25,7 km/h (4 Bft)
25.03.2013 20:04 0,4 C -1,0 C 59 % 1013,0 hPa 0,0 l/m 0 min 0 min 0,0 UV-I 0 W/m 15,4 km/h (3 Bft)
25.03.2013 20:06 0,4 C -1,0 C 58 % 1012,9 hPa 0,0 l/m 0 min 0 min 0,0 UV-I 0 W/m 10,3 km/h (2 Bft)
25.03.2013 20:08 0,4 C -1,0 C 58 % 1013,0 hPa 0,0 l/m 0 min 0 min 0,0 UV-I 0 W/m 12,9 km/h (3 Bft)
25.03.2013 20:10 0,4 C -1,0 C 59 % 1013,0 hPa 0,0 l/m 0 min 0 min 0,0 UV-I 0 W/m 10,3 km/h (2 Bft)
25.03.2013 20:12 0,4 C -1,0 C 59 % 1013,0 hPa 0,0 l/m 0 min 0 min 0,0 UV-I 0 W/m 7,7 km/h (2 Bft)
25.03.2013 20:14 0,4 C -1,0 C 59 % 1013,0 hPa 0,0 l/m 0 min 0 min 0,0 UV-I 0 W/m 12,9 km/h (3 Bft)
25.03.2013 20:16 0,4 C -1,0 C 59 % 1013,0 hPa 0,0 l/m 0 min 0 min 0,0 UV-I 0 W/m 18,0 km/h (3 Bft)
25.03.2013 20:18 0,4 C -1,0 C 59 % 1013,0 hPa 0,0 l/m 0 min 0 min 0,0 UV-I 0 W/m 7,7 km/h (2 Bft)
25.03.2013 20:20 0,3 C -1,0 C 59 % 1013,1 hPa 0,0 l/m 0 min 0 min 0,0 UV-I 0 W/m 23,2 km/h (4 Bft)
25.03.2013 20:22 0,3 C -1,0 C 59 % 1013,1 hPa 0,0 l/m 0 min 0 min 0,0 UV-I 0 W/m 10,3 km/h (2 Bft)
25.03.2013 20:24 0,3 C -1,0 C 59 % 1013,1 hPa 0,0 l/m 0 min 0 min 0,0 UV-I 0 W/m 12,9 km/h (3 Bft)
25.03.2013 20:26 0,3 C -1,0 C 59 % 1013,1 hPa 0,0 l/m 0 min 0 min 0,0 UV-I 0 W/m 10,3 km/h (2 Bft)
25.03.2013 20:28 0,3 C -1,0 C 59 % 1013,1 hPa 0,0 l/m 0 min 0 min 0,0 UV-I 0 W/m 7,7 km/h (2 Bft)
25.03.2013 20:30 0,3 C -1,0 C 59 % 1013,0 hPa 0,0 l/m 0 min 0 min 0,0 UV-I 0 W/m 15,4 km/h (3 Bft)
25.03.2013 20:32 0,3 C -1,0 C 59 % 1013,1 hPa 0,0 l/m 0 min 0 min 0,0 UV-I 0 W/m 12,9 km/h (3 Bft)
25.03.2013 20:34 0,3 C -1,0 C 59 % 1013,0 hPa 0,0 l/m 0 min 0 min 0,0 UV-I 0 W/m 7,7 km/h (2 Bft)
25.03.2013 20:36 0,3 C -1,0 C 59 % 1013,1 hPa 0,0 l/m 0 min 0 min 0,0 UV-I 0 W/m 12,9 km/h (3 Bft)
25.03.2013 20:38 0,3 C -1,0 C 59 % 1013,0 hPa 0,0 l/m 0 min 0 min 0,0 UV-I 0 W/m 12,9 km/h (3 Bft)
25.03.2013 20:40 0,3 C -1,0 C 59 % 1013,1 hPa 0,0 l/m 0 min 0 min 0,0 UV-I 0 W/m 7,7 km/h (2 Bft)
25.03.2013 20:42 0,3 C -1,0 C 59 % 1013,0 hPa 0,0 l/m 0 min 0 min 0,0 UV-I 0 W/m 10,3 km/h (2 Bft)
25.03.2013 20:44 0,2 C -1,0 C 59 % 1013,0 hPa 0,0 l/m 0 min 0 min 0,0 UV-I 0 W/m 12,9 km/h (3 Bft)
25.03.2013 20:46 0,2 C -1,0 C 59 % 1013,0 hPa 0,0 l/m 0 min 0 min 0,0 UV-I 0 W/m 10,3 km/h (2 Bft)
25.03.2013 20:48 0,2 C -1,0 C 60 % 1013,0 hPa 0,0 l/m 0 min 0 min 0,0 UV-I 0 W/m 10,3 km/h (2 Bft)
25.03.2013 20:50 0,2 C -1,0 C 60 % 1013,0 hPa 0,0 l/m 0 min 0 min 0,0 UV-I 0 W/m 7,7 km/h (2 Bft)
25.03.2013 20:52 0,2 C -1,0 C 59 % 1013,0 hPa 0,0 l/m 0 min 0 min 0,0 UV-I 0 W/m 20,6 km/h (4 Bft)
25.03.2013 20:54 0,2 C -1,0 C 59 % 1013,1 hPa 0,0 l/m 0 min 0 min 0,0 UV-I 0 W/m 7,7 km/h (2 Bft)
25.03.2013 20:56 0,2 C -1,0 C 60 % 1013,1 hPa 0,0 l/m 0 min 0 min 0,0 UV-I 0 W/m 7,7 km/h (2 Bft)
25.03.2013 20:58 0,2 C -1,0 C 60 % 1013,1 hPa 0,0 l/m 0 min 0 min 0,0 UV-I 0 W/m 12,9 km/h (3 Bft)
25.03.2013 21:00 0,2 C -1,0 C 60 % 1013,0 hPa 0,0 l/m 0 min 0 min 0,0 UV-I 0 W/m 7,7 km/h (2 Bft)
25.03.2013 21:02 0,2 C -1,0 C 60 % 1013,0 hPa 0,0 l/m 0 min 0 min 0,0 UV-I 0 W/m 18,0 km/h (3 Bft)
25.03.2013 21:04 0,2 C -1,0 C 60 % 1013,0 hPa 0,0 l/m 0 min 0 min 0,0 UV-I 0 W/m 15,4 km/h (3 Bft)
25.03.2013 21:06 0,2 C -1,0 C 60 % 1012,9 hPa 0,0 l/m 0 min 0 min 0,0 UV-I 0 W/m 10,3 km/h (2 Bft)
25.03.2013 21:08 0,2 C -1,0 C 60 % 1012,9 hPa 0,0 l/m 0 min 0 min 0,0 UV-I 0 W/m 7,7 km/h (2 Bft)
25.03.2013 21:10 0,2 C -1,0 C 60 % 1013,0 hPa 0,0 l/m 0 min 0 min 0,0 UV-I 0 W/m 23,2 km/h (4 Bft)
25.03.2013 21:12 0,2 C -1,0 C 60 % 1013,1 hPa 0,0 l/m 0 min 0 min 0,0 UV-I 0 W/m 12,9 km/h (3 Bft)
25.03.2013 21:14 0,2 C -1,0 C 60 % 1013,0 hPa 0,0 l/m 0 min 0 min 0,0 UV-I 0 W/m 10,3 km/h (2 Bft)
25.03.2013 21:16 0,2 C -1,0 C 60 % 1013,0 hPa 0,0 l/m 0 min 0 min 0,0 UV-I 0 W/m 7,7 km/h (2 Bft)
25.03.2013 21:18 0,2 C -1,0 C 60 % 1013,0 hPa 0,0 l/m 0 min 0 min 0,0 UV-I 0 W/m 12,9 km/h (3 Bft)
25.03.2013 21:20 0,1 C -1,0 C 60 % 1013,0 hPa 0,0 l/m 0 min 0 min 0,0 UV-I 0 W/m 12,9 km/h (3 Bft)
25.03.2013 21:22 0,1 C -1,0 C 60 % 1013,0 hPa 0,0 l/m 0 min 0 min 0,0 UV-I 0 W/m 10,3 km/h (2 Bft)
25.03.2013 21:24 0,1 C -1,0 C 60 % 1013,0 hPa 0,0 l/m 0 min 0 min 0,0 UV-I 0 W/m 18,0 km/h (3 Bft)
25.03.2013 21:26 0,1 C -1,0 C 60 % 1013,0 hPa 0,0 l/m 0 min 0 min 0,0 UV-I 0 W/m 15,4 km/h (3 Bft)
25.03.2013 21:28 0,1 C -1,0 C 60 % 1013,1 hPa 0,0 l/m 0 min 0 min 0,0 UV-I 0 W/m 12,9 km/h (3 Bft)
25.03.2013 21:30 0,1 C -1,0 C 60 % 1013,1 hPa 0,0 l/m 0 min 0 min 0,0 UV-I 0 W/m 7,7 km/h (2 Bft)
25.03.2013 21:32 0,1 C -1,0 C 60 % 1013,0 hPa 0,0 l/m 0 min 0 min 0,0 UV-I 0 W/m 10,3 km/h (2 Bft)
25.03.2013 21:34 0,1 C -1,0 C 60 % 1013,0 hPa 0,0 l/m 0 min 0 min 0,0 UV-I 0 W/m 7,7 km/h (2 Bft)
25.03.2013 21:36 0,1 C -1,0 C 61 % 1013,0 hPa 0,0 l/m 0 min 0 min 0,0 UV-I 0 W/m 10,3 km/h (2 Bft)
25.03.2013 21:38 0,1 C -1,0 C 65 % 1013,2 hPa 0,0 l/m 0 min 0 min 0,0 UV-I 0 W/m 10,3 km/h (2 Bft)
25.03.2013 21:40 0,0 C -1,0 C 61 % 1013,0 hPa 0,0 l/m 0 min 0 min 0,0 UV-I 0 W/m 12,9 km/h (3 Bft)
25.03.2013 21:42 0,0 C -1,0 C 61 % 1013,1 hPa 0,0 l/m 0 min 0 min 0,0 UV-I 0 W/m 20,6 km/h (4 Bft)
25.03.2013 21:44 0,0 C -1,0 C 60 % 1013,2 hPa 0,0 l/m 0 min 0 min 0,0 UV-I 0 W/m 23,2 km/h (4 Bft)
25.03.2013 21:46 0,0 C -1,0 C 61 % 1013,1 hPa 0,0 l/m 0 min 0 min 0,0 UV-I 0 W/m 10,3 km/h (2 Bft)
25.03.2013 21:48 0,0 C -1,0 C 61 % 1013,1 hPa 0,0 l/m 0 min 0 min 0,0 UV-I 0 W/m 5,1 km/h (1 Bft)
25.03.2013 21:50 0,0 C -1,0 C 61 % 1013,1 hPa 0,0 l/m 0 min 0 min 0,0 UV-I 0 W/m 12,9 km/h (3 Bft)
25.03.2013 21:52 -0,1 C -1,6 C 61 % 1013,2 hPa 0,0 l/m 0 min 0 min 0,0 UV-I 0 W/m 7,7 km/h (2 Bft)
25.03.2013 21:54 -0,1 C -1,6 C 61 % 1013,2 hPa 0,0 l/m 0 min 0 min 0,0 UV-I 0 W/m 10,3 km/h (2 Bft)
25.03.2013 21:56 -0,1 C -1,6 C 61 % 1013,3 hPa 0,0 l/m 0 min 0 min 0,0 UV-I 0 W/m 12,9 km/h (3 Bft)
25.03.2013 21:58 -0,1 C -1,6 C 62 % 1013,2 hPa 0,0 l/m 0 min 0 min 0,0 UV-I 0 W/m 10,3 km/h (2 Bft)
25.03.2013 22:00 -0,1 C -1,6 C 61 % 1013,3 hPa 0,0 l/m 0 min 0 min 0,0 UV-I 0 W/m 18,0 km/h (3 Bft)
25.03.2013 22:02 -0,1 C -1,6 C 61 % 1013,2 hPa 0,0 l/m 0 min 0 min 0,0 UV-I 0 W/m 7,7 km/h (2 Bft)
25.03.2013 22:04 -0,2 C -1,6 C 61 % 1013,2 hPa 0,0 l/m 0 min 0 min 0,0 UV-I 0 W/m 7,7 km/h (2 Bft)
25.03.2013 22:06 -0,2 C -1,6 C 62 % 1013,2 hPa 0,0 l/m 0 min 0 min 0,0 UV-I 0 W/m 10,3 km/h (2 Bft)
25.03.2013 22:08 -0,2 C -1,6 C 61 % 1013,3 hPa 0,0 l/m 0 min 0 min 0,0 UV-I 0 W/m 5,1 km/h (1 Bft)
25.03.2013 22:10 -0,2 C -1,6 C 62 % 1013,3 hPa 0,0 l/m 0 min 0 min 0,0 UV-I 0 W/m 10,3 km/h (2 Bft)
25.03.2013 22:12 -0,2 C -1,6 C 62 % 1013,3 hPa 0,0 l/m 0 min 0 min 0,0 UV-I 0 W/m 10,3 km/h (2 Bft)
25.03.2013 22:14 -0,2 C -1,6 C 62 % 1013,3 hPa 0,0 l/m 0 min 0 min 0,0 UV-I 0 W/m 7,7 km/h (2 Bft)
25.03.2013 22:16 -0,2 C -1,6 C 62 % 1013,3 hPa 0,0 l/m 0 min 0 min 0,0 UV-I 0 W/m 5,1 km/h (1 Bft)
25.03.2013 22:18 -0,3 C -1,6 C 62 % 1013,3 hPa 0,0 l/m 0 min 0 min 0,0 UV-I 0 W/m 5,1 km/h (1 Bft)
25.03.2013 22:20 -0,3 C -1,6 C 62 % 1013,3 hPa 0,0 l/m 0 min 0 min 0,0 UV-I 0 W/m 5,1 km/h (1 Bft)
25.03.2013 22:22 -0,3 C -1,6 C 62 % 1013,3 hPa 0,0 l/m 0 min 0 min 0,0 UV-I 0 W/m 23,2 km/h (4 Bft)
25.03.2013 22:24 -0,3 C -1,6 C 62 % 1013,3 hPa 0,0 l/m 0 min 0 min 0,0 UV-I 0 W/m 10,3 km/h (2 Bft)
25.03.2013 22:26 -0,3 C -1,6 C 62 % 1013,3 hPa 0,0 l/m 0 min 0 min 0,0 UV-I 0 W/m 5,1 km/h (1 Bft)
25.03.2013 22:28 -0,3 C -2,1 C 62 % 1013,3 hPa 0,0 l/m 0 min 0 min 0,0 UV-I 0 W/m 5,1 km/h (1 Bft)
25.03.2013 22:30 -0,4 C -2,1 C 62 % 1013,2 hPa 0,0 l/m 0 min 0 min 0,0 UV-I 0 W/m 10,3 km/h (2 Bft)
25.03.2013 22:32 -0,4 C -2,1 C 62 % 1013,3 hPa 0,0 l/m 0 min 0 min 0,0 UV-I 0 W/m 7,7 km/h (2 Bft)
25.03.2013 22:34 -0,4 C -2,1 C 62 % 1013,3 hPa 0,0 l/m 0 min 0 min 0,0 UV-I 0 W/m 2,6 km/h (1 Bft)
25.03.2013 22:36 -0,4 C -2,1 C 62 % 1013,3 hPa 0,0 l/m 0 min 0 min 0,0 UV-I 0 W/m 23,2 km/h (4 Bft)
25.03.2013 22:38 -0,4 C -2,1 C 62 % 1013,3 hPa 0,0 l/m 0 min 0 min 0,0 UV-I 0 W/m 5,1 km/h (1 Bft)
25.03.2013 22:40 -0,5 C -2,1 C 62 % 1013,3 hPa 0,0 l/m 0 min 0 min 0,0 UV-I 0 W/m 10,3 km/h (2 Bft)
25.03.2013 22:42 -0,5 C -2,1 C 62 % 1013,2 hPa 0,0 l/m 0 min 0 min 0,0 UV-I 0 W/m 15,4 km/h (3 Bft)
25.03.2013 22:44 -0,6 C -2,1 C 62 % 1013,2 hPa 0,0 l/m 0 min 0 min 0,0 UV-I 0 W/m 5,1 km/h (1 Bft)
25.03.2013 22:46 -0,6 C -2,1 C 63 % 1013,2 hPa 0,0 l/m 0 min 0 min 0,0 UV-I 0 W/m 7,7 km/h (2 Bft)
25.03.2013 22:48 -0,6 C -2,1 C 63 % 1013,2 hPa 0,0 l/m 0 min 0 min 0,0 UV-I 0 W/m 5,1 km/h (1 Bft)
25.03.2013 22:50 -0,6 C -2,1 C 63 % 1013,2 hPa 0,0 l/m 0 min 0 min 0,0 UV-I 0 W/m 5,1 km/h (1 Bft)
25.03.2013 22:52 -0,6 C -2,1 C 63 % 1013,2 hPa 0,0 l/m 0 min 0 min 0,0 UV-I 0 W/m 5,1 km/h (1 Bft)
25.03.2013 22:54 -0,7 C -2,1 C 63 % 1013,2 hPa 0,0 l/m 0 min 0 min 0,0 UV-I 0 W/m 20,6 km/h (4 Bft)
25.03.2013 22:56 -0,7 C -2,1 C 63 % 1013,2 hPa 0,0 l/m 0 min 0 min 0,0 UV-I 0 W/m 5,1 km/h (1 Bft)
25.03.2013 22:58 -0,7 C -2,1 C 63 % 1013,2 hPa 0,0 l/m 0 min 0 min 0,0 UV-I 0 W/m 0,0 km/h (0 Bft)
25.03.2013 23:00 -0,7 C -2,7 C 63 % 1013,2 hPa 0,0 l/m 0 min 0 min 0,0 UV-I 0 W/m 2,6 km/h (1 Bft)
25.03.2013 23:02 -0,8 C -2,1 C 63 % 1013,2 hPa 0,0 l/m 0 min 0 min 0,0 UV-I 0 W/m 7,7 km/h (2 Bft)
25.03.2013 23:04 -0,8 C -2,7 C 64 % 1013,2 hPa 0,0 l/m 0 min 0 min 0,0 UV-I 0 W/m 2,6 km/h (1 Bft)
25.03.2013 23:06 -0,8 C -2,7 C 64 % 1013,1 hPa 0,0 l/m 0 min 0 min 0,0 UV-I 0 W/m 5,1 km/h (1 Bft)
25.03.2013 23:08 -0,8 C -2,7 C 64 % 1013,1 hPa 0,0 l/m 0 min 0 min 0,0 UV-I 0 W/m 7,7 km/h (2 Bft)
25.03.2013 23:10 -0,8 C -2,7 C 64 % 1013,2 hPa 0,0 l/m 0 min 0 min 0,0 UV-I 0 W/m 5,1 km/h (1 Bft)
25.03.2013 23:12 -0,9 C -2,7 C 64 % 1013,2 hPa 0,0 l/m 0 min 0 min 0,0 UV-I 0 W/m 5,1 km/h (1 Bft)
25.03.2013 23:14 -0,9 C -2,7 C 64 % 1013,1 hPa 0,0 l/m 0 min 0 min 0,0 UV-I 0 W/m 5,1 km/h (1 Bft)
25.03.2013 23:16 -0,9 C -2,7 C 64 % 1013,1 hPa 0,0 l/m 0 min 0 min 0,0 UV-I 0 W/m 10,3 km/h (2 Bft)
25.03.2013 23:18 -0,9 C -2,7 C 64 % 1013,2 hPa 0,0 l/m 0 min 0 min 0,0 UV-I 0 W/m 7,7 km/h (2 Bft)
25.03.2013 23:20 -0,9 C -2,7 C 64 % 1013,1 hPa 0,0 l/m 0 min 0 min 0,0 UV-I 0 W/m 2,6 km/h (1 Bft)
25.03.2013 23:22 -1,0 C -2,7 C 64 % 1013,2 hPa 0,0 l/m 0 min 0 min 0,0 UV-I 0 W/m 5,1 km/h (1 Bft)
25.03.2013 23:24 -1,0 C -2,7 C 64 % 1013,2 hPa 0,0 l/m 0 min 0 min 0,0 UV-I 0 W/m 2,6 km/h (1 Bft)
25.03.2013 23:26 -1,0 C -2,7 C 65 % 1013,1 hPa 0,0 l/m 0 min 0 min 0,0 UV-I 0 W/m 5,1 km/h (1 Bft)
25.03.2013 23:28 -1,1 C -2,7 C 65 % 1013,2 hPa 0,0 l/m 0 min 0 min 0,0 UV-I 0 W/m 5,1 km/h (1 Bft)
25.03.2013 23:30 -1,1 C -2,7 C 65 % 1013,2 hPa 0,0 l/m 0 min 0 min 0,0 UV-I 0 W/m 10,3 km/h (2 Bft)
25.03.2013 23:32 -1,1 C -2,7 C 65 % 1013,2 hPa 0,0 l/m 0 min 0 min 0,0 UV-I 0 W/m 0,0 km/h (0 Bft)
25.03.2013 23:34 -1,1 C -2,7 C 65 % 1013,2 hPa 0,0 l/m 0 min 0 min 0,0 UV-I 0 W/m 0,0 km/h (0 Bft)
25.03.2013 23:36 -1,1 C -2,7 C 65 % 1013,2 hPa 0,0 l/m 0 min 0 min 0,0 UV-I 0 W/m 0,0 km/h (0 Bft)
25.03.2013 23:38 -1,2 C -2,7 C 65 % 1013,2 hPa 0,0 l/m 0 min 0 min 0,0 UV-I 0 W/m 5,1 km/h (1 Bft)
25.03.2013 23:40 -1,2 C -2,7 C 65 % 1013,2 hPa 0,0 l/m 0 min 0 min 0,0 UV-I 0 W/m 2,6 km/h (1 Bft)
25.03.2013 23:42 -1,2 C -2,7 C 66 % 1013,2 hPa 0,0 l/m 0 min 0 min 0,0 UV-I 0 W/m 7,7 km/h (2 Bft)
25.03.2013 23:44 -1,2 C -2,7 C 66 % 1013,1 hPa 0,0 l/m 0 min 0 min 0,0 UV-I 0 W/m 7,7 km/h (2 Bft)
25.03.2013 23:46 -1,2 C -2,7 C 66 % 1013,1 hPa 0,0 l/m 0 min 0 min 0,0 UV-I 0 W/m 2,6 km/h (1 Bft)
25.03.2013 23:48 -1,2 C -2,7 C 66 % 1013,0 hPa 0,0 l/m 0 min 0 min 0,0 UV-I 0 W/m 7,7 km/h (2 Bft)
25.03.2013 23:50 -1,2 C -2,7 C 66 % 1013,1 hPa 0,0 l/m 0 min 0 min 0,0 UV-I 0 W/m 2,6 km/h (1 Bft)
25.03.2013 23:52 -1,3 C -2,7 C 66 % 1013,1 hPa 0,0 l/m 0 min 0 min 0,0 UV-I 0 W/m 5,1 km/h (1 Bft)
25.03.2013 23:54 -1,3 C -2,7 C 66 % 1013,1 hPa 0,0 l/m 0 min 0 min 0,0 UV-I 0 W/m 5,1 km/h (1 Bft)
25.03.2013 23:56 -1,3 C -2,7 C 66 % 1013,1 hPa 0,0 l/m 0 min 0 min 0,0 UV-I 0 W/m 2,6 km/h (1 Bft)
25.03.2013 23:58 -1,3 C -2,7 C 66 % 1013,1 hPa 0,0 l/m 0 min 0 min 0,0 UV-I 0 W/m 0,0 km/h (0 Bft)
_ Min-Zeit 07:02 05:48 14:08 15:46 - - - - - 00:40
Minimum _ -3,0 C -3,8 C 46 % 1011,7 hPa - - - - - 0,0 km/h (0 Bft)
_ Max-Zeit 15:30 15:38 06:30 08:02 00:00 08:40 00:00 12:26 11:50 14:10
Maximum _ 5,2 C 7,9 C 68 % 1014,9 hPa 0,0 l/m 2 min 0 min 1,8 UV-I 686 W/m 43,8 km/h
O (6 Bft)
Durchschnitt _ 0,4 C -0,4 C 58 % 1013,5 hPa #0,0 l/m #8:42 h #0 min. 1,2 UV-I 351 W/m 15,4 km/h (3 Bft)
© 2013 W. Hausmann